GFSFLT1_850_thetae_000.txt.gz
Theta_e
324 319 319 315 313 311 309 311 312 323 315 314 310 309 315 322 323 325 325 319 310 309 308 308 308 307 305 305 305 302 302 302 302
326 321 320 318 316 313 308 307 308 310 310 311 310 309 318 321 323 324 323 308 308 308 308 308 308 307 307 305 306 304 303 302 302
324 324 325 324 320 317 311 307 307 308 310 310 310 308 317 320 322 322 321 308 308 308 308 309 308 308 308 307 307 307 306 306 305
324 324 325 325 324 319 312 309 307 308 309 309 309 308 313 316 318 317 313 308 309 308 308 309 309 309 309 309 308 308 308 308 307
323 321 325 325 324 320 314 308 308 308 309 309 309 309 309 313 312 318 317 312 309 309 308 309 309 309 309 309 309 309 308 308 308
324 319 317 319 319 316 313 308 307 308 309 309 309 309 309 312 312 316 314 310 309 309 309 309 309 309 309 309 310 309 309 309 309
326 321 319 315 313 312 311 307 306 308 310 309 309 308 309 311 314 316 315 310 309 310 310 310 310 309 309 309 309 309 309 309 309
323 319 315 316 311 311 310 307 306 309 310 311 312 309 307 311 311 313 313 312 309 309 309 309 309 309 309 309 309 309 309 309 309
317 315 315 316 313 315 311 311 307 309 310 311 311 312 311 312 311 310 310 311 310 309 309 309 309 309 309 309 309 308 308 309 309
320 318 319 318 315 314 317 315 312 314 312 311 311 310 310 310 310 310 309 310 310 309 309 309 309 309 308 308 308 308 308 308 308
321 320 319 318 317 315 315 315 313 311 313 313 312 311 310 309 309 309 309 309 309 309 309 309 309 309 309 309 309 308 308 308 308
323 322 321 320 319 317 316 315 317 317 316 315 316 315 313 311 310 309 309 309 309 310 310 310 309 309 309 309 309 309 308 309 309
326 326 326 325 322 321 319 318 317 317 316 316 318 318 316 313 312 312 310 310 310 309 310 310 310 310 309 309 309 309 309 310 310
324 325 326 327 326 324 323 322 321 320 319 320 319 317 317 317 317 315 314 312 311 311 310 310 310 310 310 309 309 309 309 310 310
323 324 325 328 328 328 326 324 323 322 321 321 321 320 320 318 318 317 318 317 316 315 313 312 311 310 310 310 309 308 309 310 310
323 324 325 327 328 329 328 327 325 325 324 323 322 322 321 321 320 319 319 316 316 316 315 314 313 311 311 310 309 310 310 309 309
326 326 326 327 328 329 329 329 327 326 325 324 324 323 322 322 321 320 319 317 318 319 319 318 316 314 312 311 311 313 315 315 316
330 330 330 330 329 329 329 330 329 327 326 326 325 324 322 321 320 319 318 318 320 320 319 317 316 314 312 317 318 318 319 318 318
328 329 329 330 330 330 330 330 330 329 328 326 325 324 323 322 322 321 321 319 319 318 316 315 314 315 316 318 318 319 319 318 318
329 328 329 329 329 330 331 331 332 330 329 327 326 325 325 325 323 322 322 321 321 320 319 318 318 317 317 317 318 318 318 318 318

GFSFLT1_850_thetae_003.txt.gz
Theta_e
325 319 317 314 312 309 308 312 310 316 319 319 310 309 314 319 322 325 322 308 309 309 308 308 308 307 306 306 306 305 304 303 302
326 321 318 316 313 310 308 308 309 309 310 311 309 309 315 318 322 322 319 307 308 309 309 309 308 308 308 308 307 307 305 304 304
323 321 319 318 316 314 311 308 307 308 309 309 310 309 316 318 321 321 318 308 308 309 309 309 309 309 308 308 308 308 307 307 307
316 321 320 324 322 321 315 311 308 307 308 309 309 308 315 316 320 320 316 309 308 309 309 309 309 309 309 309 308 308 308 308 308
317 319 324 325 324 323 319 313 309 308 308 309 309 309 311 313 314 313 314 312 309 309 309 309 309 309 309 309 309 309 309 309 309
314 319 317 316 319 319 317 313 308 308 308 309 309 309 308 310 312 312 314 314 310 310 310 310 309 309 309 309 310 310 310 310 310
318 317 316 314 313 313 315 313 309 306 308 309 309 309 309 309 310 310 312 313 310 310 310 310 310 309 309 309 309 310 310 310 310
316 316 314 314 315 313 312 312 309 306 307 309 309 309 308 308 310 311 312 312 312 310 310 310 310 310 310 309 309 309 309 309 309
317 317 315 314 315 313 312 311 310 307 307 309 310 310 309 308 309 310 310 311 311 311 310 310 310 310 310 309 309 309 309 309 309
320 320 319 318 317 315 313 312 311 309 308 309 310 311 311 310 309 310 311 310 310 311 310 310 310 309 309 309 309 309 309 308 308
321 321 322 322 321 319 317 315 313 312 310 309 312 311 310 310 310 310 310 310 310 310 309 310 310 310 310 309 309 309 309 309 309
324 324 324 323 323 322 320 319 317 315 314 312 311 311 313 313 312 311 310 309 309 310 310 310 310 310 310 310 309 309 309 309 309
324 324 323 324 325 324 324 322 321 319 317 315 314 314 314 314 315 314 312 312 310 310 309 309 309 309 309 310 310 310 309 309 309
322 323 323 325 326 326 326 325 324 323 321 320 319 317 316 315 315 314 314 313 313 312 311 311 311 310 310 310 310 311 311 310 310
324 324 324 326 326 327 326 326 326 325 324 323 322 321 321 320 319 318 317 316 316 315 315 315 314 313 312 311 311 310 310 310 310
328 328 327 326 327 327 327 327 328 327 325 324 324 323 323 323 322 321 320 320 319 319 318 317 315 315 314 314 314 313 311 310 309
330 330 329 329 329 329 329 328 328 328 327 325 324 323 324 323 322 321 321 320 320 320 319 319 317 317 318 318 316 313 312 311 310
331 331 331 331 331 331 330 330 329 329 329 328 325 325 324 322 320 320 320 319 319 318 318 318 317 318 319 315 314 314 311 312 313
331 330 330 330 330 331 331 331 330 329 328 327 327 327 326 324 323 321 322 321 321 320 320 319 319 319 316 314 314 313 316 318 319
328 328 329 330 330 330 330 330 328 329 330 329 327 327 327 327 324 323 322 322 321 321 321 321 320 319 319 319 320 317 316 317 318

GFSFLT1_850_thetae_006.txt.gz
Theta_e
324 319 316 313 311 311 309 313 312 311 312 319 313 310 314 317 323 323 323 319 308 309 309 308 308 307 306 306 306 304 304 303 303
322 320 319 315 314 311 308 308 309 309 309 310 309 309 315 317 319 322 321 313 309 309 309 309 309 308 307 307 307 306 305 305 304
320 319 318 318 318 315 311 309 307 308 308 309 309 309 314 317 317 319 318 311 308 309 309 309 309 309 308 308 308 308 307 307 307
316 318 322 325 322 320 317 313 309 307 307 308 309 309 312 316 316 315 314 313 308 309 309 309 309 309 309 309 309 309 308 308 308
314 319 319 317 324 321 321 317 312 309 307 308 309 309 309 313 315 315 313 311 308 309 309 309 309 309 309 309 309 309 309 309 309
312 314 317 315 313 314 315 315 313 310 308 307 308 309 309 311 313 312 311 312 312 310 309 309 309 309 309 309 310 310 310 310 310
311 315 315 312 311 311 312 311 311 310 307 307 308 309 309 308 309 311 311 312 313 313 310 310 310 310 310 310 310 309 309 309 309
315 316 315 314 313 313 312 311 311 311 308 306 308 309 309 308 308 309 310 310 312 313 311 310 310 310 310 310 310 310 310 309 309
318 318 319 318 317 315 315 312 312 311 309 306 307 309 309 309 308 308 310 311 312 312 312 311 310 310 310 310 310 310 309 309 309
320 320 321 321 320 320 318 316 314 312 311 309 307 308 310 310 310 308 308 310 311 311 312 312 311 310 310 310 310 310 309 309 309
321 322 322 323 322 322 321 320 319 317 314 313 311 309 310 311 311 311 310 309 310 311 310 310 311 312 312 312 310 310 310 309 309
322 323 323 323 323 323 322 322 321 320 318 317 316 313 311 310 312 311 310 310 310 310 310 310 310 310 312 316 317 316 312 310 310
323 323 323 323 324 324 324 324 323 323 322 322 320 318 317 315 314 313 314 314 313 312 311 310 309 309 309 313 318 320 320 319 315
326 325 324 324 324 325 325 325 324 324 324 324 323 322 321 320 319 318 317 316 316 315 314 313 313 312 311 311 315 317 319 319 318
329 329 329 329 328 327 326 326 326 326 325 324 324 324 324 324 323 323 321 321 320 319 318 317 316 315 315 315 314 312 312 313 315
331 331 331 331 331 330 330 329 328 328 327 326 326 326 326 326 326 325 324 324 323 322 322 320 319 319 319 318 317 316 315 315 315
331 331 331 331 331 330 330 330 330 330 329 328 325 324 325 325 326 326 322 319 320 320 320 320 320 320 320 319 318 317 317 317 317
330 331 331 331 330 330 330 330 330 329 328 327 326 325 325 325 326 326 324 324 323 321 320 320 319 319 319 318 317 317 317 316 316
327 327 327 328 328 329 330 330 330 330 328 328 327 327 326 325 325 325 326 325 325 324 323 321 320 321 321 320 319 319 318 316 314
325 325 326 328 328 327 328 329 330 330 329 329 329 329 328 327 325 325 325 325 325 325 325 325 324 322 320 321 320 320 320 320 319

GFSFLT1_850_thetae_009.txt.gz
Theta_e
328 323 318 316 314 312 310 313 313 312 319 318 322 312 313 316 318 318 320 319 315 308 309 309 308 308 307 307 306 305 305 304 304
326 321 320 318 315 313 310 308 309 312 309 309 311 311 311 313 314 318 319 314 309 309 309 309 309 308 308 308 307 307 306 305 305
327 323 321 319 317 316 313 311 309 308 308 308 309 309 311 315 316 318 320 317 311 309 309 309 309 309 309 308 308 308 308 307 307
322 320 319 320 318 317 316 314 312 310 307 307 308 309 310 314 317 318 318 316 312 309 309 309 309 309 309 309 309 309 309 308 308
315 313 315 315 313 314 316 315 314 313 310 308 307 309 309 311 315 316 316 315 313 312 310 309 309 309 309 309 309 309 309 309 309
312 311 313 314 312 312 313 314 314 314 313 309 308 308 309 309 310 314 314 315 312 311 314 309 309 309 309 309 310 310 310 310 310
312 312 314 314 313 313 312 313 313 313 312 310 307 307 308 309 309 311 313 313 312 312 316 313 310 309 309 309 310 310 310 309 309
315 315 316 317 317 316 315 314 314 312 311 311 308 306 308 309 309 309 309 310 311 312 316 320 312 310 310 310 310 310 310 309 309
317 318 319 319 319 319 318 317 317 315 313 312 310 307 307 309 309 309 308 308 310 311 312 323 322 314 310 310 310 310 310 310 309
320 320 320 320 321 321 321 320 320 319 318 315 313 311 308 307 309 309 309 308 308 310 312 322 324 324 322 317 311 310 309 309 309
321 321 322 322 322 322 322 322 322 321 321 320 318 316 315 312 309 309 310 311 310 308 310 312 322 324 325 324 323 321 315 310 310
321 322 322 323 323 323 323 323 323 323 323 323 322 321 320 319 316 313 311 311 311 311 311 311 311 313 320 323 324 324 323 323 322
324 324 325 325 325 325 325 324 324 324 324 324 324 324 324 324 323 321 319 317 315 314 313 312 311 310 311 318 319 321 322 322 322
328 328 329 330 330 330 329 329 328 327 327 326 326 326 326 326 325 325 324 323 322 321 320 318 316 316 315 314 316 316 316 317 319
330 331 331 332 331 331 331 331 330 330 329 328 328 328 328 328 327 327 326 326 326 325 325 323 322 321 320 319 317 316 315 314 314
332 332 332 331 331 331 331 331 331 330 330 329 327 327 326 326 326 326 326 326 326 325 322 321 322 322 322 322 321 320 319 318 317
332 331 330 330 330 330 330 329 330 330 330 328 326 324 325 325 325 325 325 326 326 325 324 325 323 320 319 319 319 319 319 319 319
326 326 326 327 327 327 328 328 329 328 328 329 328 326 326 326 325 325 325 326 325 325 326 326 325 326 325 323 321 320 319 319 318
321 321 321 322 323 324 325 325 326 327 328 328 328 328 328 326 327 326 326 326 326 326 326 325 325 324 325 326 325 324 320 319 320
314 314 313 313 313 314 315 316 318 322 326 326 327 327 327 326 326 324 324 324 326 326 326 325 326 326 324 324 324 324 324 321 318

GFSFLT1_850_thetae_012.txt.gz
Theta_e
327 325 320 317 315 313 312 313 314 314 315 319 321 320 314 311 314 316 320 321 319 316 309 309 309 309 308 308 307 306 305 305 304
328 322 321 317 315 314 312 311 310 310 312 312 310 314 314 311 312 314 316 320 317 314 309 309 309 309 309 308 308 307 307 306 305
328 323 317 316 317 316 318 315 313 310 308 308 308 309 311 309 312 315 315 319 317 323 315 309 309 309 309 309 308 308 308 307 307
319 321 318 316 318 326 327 324 320 317 313 310 307 308 310 309 311 314 314 317 319 319 323 310 309 309 309 309 309 309 309 308 308
314 313 313 314 318 326 323 323 320 317 316 314 310 307 308 310 310 312 314 315 317 316 323 317 309 309 309 309 309 309 309 309 309
313 312 311 313 315 315 317 325 317 316 314 313 313 309 308 308 309 310 312 314 315 316 321 323 320 310 309 309 309 309 309 309 309
313 313 313 314 315 317 316 317 316 316 315 313 312 311 308 307 308 309 309 311 315 316 315 322 323 320 310 310 309 309 309 309 309
314 315 316 316 318 319 319 319 318 318 317 315 313 312 311 307 307 308 309 309 310 312 313 316 323 323 321 314 312 311 310 309 309
316 317 318 319 319 320 321 321 321 321 320 319 318 316 313 311 307 307 308 309 309 308 308 312 322 324 326 323 320 314 311 310 310
319 319 320 321 322 322 322 322 322 322 322 322 322 321 320 318 315 312 308 308 309 309 308 308 313 322 323 325 323 321 316 313 313
320 321 321 322 322 323 323 323 323 323 323 323 323 323 323 323 323 321 319 315 310 309 310 311 309 311 322 324 325 324 322 321 319
322 323 324 325 327 327 327 327 327 327 327 327 326 325 325 324 324 324 324 324 322 318 313 311 311 311 312 320 322 324 324 324 323
327 327 328 329 330 330 330 330 330 330 330 330 329 329 328 327 326 326 326 325 325 325 324 321 317 315 313 315 319 320 320 321 322
329 330 330 331 331 331 331 331 330 329 329 329 329 329 328 328 328 327 327 327 327 326 326 326 325 324 322 319 318 317 318 317 318
331 331 331 332 332 331 331 330 329 329 329 329 328 328 327 326 326 325 325 325 325 325 326 325 325 326 326 325 324 321 319 319 318
331 331 331 330 329 329 328 328 328 328 328 328 327 326 326 326 325 325 325 324 325 324 325 325 326 324 322 323 320 320 322 322 322
326 325 325 325 325 325 326 326 326 327 327 326 325 325 326 325 326 326 326 325 325 325 325 325 325 325 325 325 324 324 320 319 319
320 319 319 318 317 317 318 317 317 320 323 326 324 325 325 325 324 325 324 325 325 325 325 326 325 325 325 325 325 325 325 325 324
314 314 313 312 311 310 309 309 309 310 312 316 320 322 322 323 323 323 324 324 323 323 324 324 324 324 325 325 325 325 325 324 325
310 309 309 309 308 308 307 306 306 305 304 305 307 309 311 313 317 318 318 317 318 318 321 322 322 322 323 324 324 324 325 324 325

GFSFLT1_850_thetae_015.txt.gz
Theta_e
326 318 317 317 316 314 312 312 313 316 319 320 325 325 325 319 312 313 316 319 320 318 324 318 313 310 310 309 308 307 307 306 305
326 321 319 318 317 315 314 313 311 311 314 315 319 320 321 323 312 312 313 315 320 319 323 314 309 309 309 308 308 308 307 307 306
328 324 322 318 317 319 320 321 318 315 312 311 322 323 315 323 311 311 313 315 318 317 324 321 311 309 309 309 309 309 308 308 307
324 322 321 320 320 327 327 327 326 324 323 317 314 311 310 312 311 310 313 315 317 320 321 325 324 319 310 309 309 309 309 308 308
318 319 319 321 316 319 326 326 326 325 324 323 317 316 312 309 309 310 310 313 315 317 319 323 324 323 315 310 309 309 309 309 309
316 315 314 314 314 316 319 323 324 325 324 317 316 314 313 311 308 308 309 310 312 314 315 323 324 325 323 316 312 310 309 309 309
314 314 315 315 315 317 318 319 319 319 318 317 317 315 313 311 310 307 307 308 309 310 312 315 323 324 324 323 315 313 311 310 309
314 315 316 317 318 319 319 320 321 321 321 321 321 320 319 317 314 311 307 307 308 309 309 310 314 320 324 325 323 322 321 317 312
316 317 318 319 320 321 322 322 322 323 323 323 323 323 322 322 322 321 318 313 308 308 309 309 309 309 319 323 323 324 321 316 316
319 320 321 321 322 323 323 324 324 324 324 324 324 324 324 324 323 323 323 322 319 315 309 308 309 309 309 316 321 323 324 323 320
322 322 323 324 326 326 327 328 328 329 328 328 328 329 328 328 327 325 324 324 324 323 321 318 312 309 310 315 318 320 320 323 325
327 326 327 328 329 330 330 330 330 330 330 330 329 329 329 329 329 329 328 326 325 325 325 324 323 320 315 314 316 316 316 320 323
329 329 329 330 330 331 331 331 330 329 328 328 328 328 328 328 328 327 327 326 326 326 326 326 326 325 324 322 320 318 316 315 316
329 329 330 330 330 331 330 330 329 329 327 327 327 327 327 326 327 326 326 325 325 324 325 324 324 325 326 326 325 323 321 319 317
329 330 330 330 329 327 326 326 326 326 326 326 326 326 326 325 324 324 324 324 325 325 324 325 324 324 325 325 325 325 325 324 322
326 324 323 323 322 322 321 321 321 322 321 321 322 322 322 323 324 323 324 323 324 323 325 325 326 325 325 325 325 324 324 324 322
317 316 315 314 313 313 312 310 310 310 310 316 318 321 320 321 323 321 321 324 321 323 325 324 324 324 325 324 325 325 324 325 323
314 313 312 310 309 308 308 307 306 305 306 306 311 316 317 315 314 316 317 319 321 323 320 322 322 323 324 324 324 324 324 325 325
308 308 308 307 307 307 307 306 306 305 304 304 305 304 305 310 310 310 311 312 315 317 316 315 314 314 315 316 317 317 318 323 324
308 308 307 306 305 304 302 302 301 300 300 300 302 302 303 306 309 310 309 310 310 311 311 310 314 317 317 313 314 316 317 319 321

GFSFLT1_850_thetae_018.txt.gz
Theta_e
329 323 319 319 318 316 313 312 315 325 321 321 324 325 325 325 324 321 321 318 326 319 320 324 318 325 319 314 310 309 308 307 306
330 327 325 322 318 318 315 315 314 311 312 313 315 323 322 320 323 323 320 322 323 320 323 325 320 311 315 310 310 308 308 307 306
330 328 327 324 321 321 326 324 324 322 321 317 315 322 324 323 321 324 321 315 314 316 324 324 324 319 313 311 310 309 309 308 308
324 326 325 323 324 324 324 326 326 326 326 325 324 322 317 317 322 323 323 318 314 316 320 322 326 326 323 322 319 312 310 309 309
317 318 318 315 316 315 316 321 326 325 325 325 323 316 314 315 322 322 321 311 310 313 315 318 323 325 326 323 322 315 310 310 309
320 317 316 315 315 315 316 317 319 319 320 320 318 317 317 321 320 318 313 308 308 309 311 313 320 324 324 325 323 321 316 311 310
317 316 316 316 317 318 319 319 320 321 325 327 325 324 325 324 321 319 314 310 307 307 309 309 311 316 323 323 326 324 321 322 313
318 317 317 318 319 320 321 322 323 324 325 326 327 326 326 325 324 323 322 320 316 310 307 308 309 309 311 319 323 324 324 323 322
320 320 320 320 322 323 323 324 325 326 326 326 326 327 326 326 325 324 323 323 323 322 318 311 307 309 309 310 317 322 323 324 323
322 323 324 323 325 326 327 327 328 328 328 328 328 328 328 328 328 327 327 326 325 324 323 322 320 315 309 309 310 310 318 323 324
327 327 327 327 328 328 329 330 330 330 329 329 328 328 328 328 327 327 328 328 328 327 326 324 324 323 322 318 314 312 313 317 321
328 329 329 329 329 329 330 330 329 329 329 328 328 328 327 327 327 327 327 327 327 326 326 326 327 327 326 325 324 322 318 313 311
329 329 329 329 330 330 330 327 328 328 328 328 327 326 326 326 326 327 326 326 326 325 325 325 325 325 325 325 326 326 325 323 320
329 329 330 330 329 328 326 325 324 323 324 324 322 323 322 324 326 326 326 325 324 324 324 325 324 325 324 324 324 326 328 327 326
327 326 324 322 321 320 318 318 319 320 320 320 320 320 320 321 323 324 324 325 326 325 325 325 324 323 324 325 325 325 324 325 326
317 315 314 313 313 312 311 311 310 312 313 312 313 314 317 320 318 323 324 320 321 322 324 323 324 325 324 323 323 324 325 325 325
312 310 309 308 308 308 308 307 307 309 309 310 310 311 312 313 315 312 311 314 314 318 321 321 321 322 322 323 323 322 323 323 324
308 309 309 309 308 306 305 304 304 306 306 307 307 309 311 308 308 309 309 311 313 312 312 315 316 316 316 318 318 319 317 315 316
310 309 308 306 303 301 299 298 297 301 303 303 303 305 305 306 307 306 307 308 309 308 308 309 310 311 312 314 317 318 317 314 314
309 306 304 301 298 296 295 294 294 298 299 300 301 303 303 304 304 305 303 302 303 303 304 306 308 309 311 310 311 315 316 316 316

GFSFLT1_850_thetae_021.txt.gz
Theta_e
330 329 327 323 320 317 315 312 312 314 313 317 321 322 324 324 325 326 323 320 320 327 321 323 322 324 326 325 322 312 310 308 307
331 329 327 325 321 317 317 315 317 316 314 312 311 314 319 321 320 320 326 322 323 325 320 326 327 321 313 314 313 314 311 308 308
332 330 328 325 320 321 315 323 324 325 323 322 318 316 314 312 317 322 322 325 316 312 313 322 324 327 322 312 311 310 310 309 309
330 323 322 317 317 319 315 318 326 324 324 324 318 316 314 313 313 318 323 324 319 311 312 314 325 325 327 325 317 313 310 310 309
319 316 315 314 314 314 315 316 317 320 320 321 319 317 317 316 320 322 321 321 313 309 310 312 314 327 325 328 327 321 314 310 310
329 327 316 315 316 317 317 318 319 320 320 321 325 324 322 323 325 322 321 318 313 308 307 309 310 312 322 323 325 325 322 317 314
326 318 315 316 317 318 320 321 321 322 324 328 328 328 327 327 326 325 324 321 321 317 312 307 308 309 310 315 322 324 326 326 322
327 327 325 321 323 322 324 324 326 327 328 328 328 328 328 328 327 327 326 323 322 323 322 320 315 308 308 309 310 315 321 324 326
328 328 328 327 327 328 328 328 328 329 329 329 329 329 328 328 328 328 328 327 326 326 326 324 323 322 317 310 308 309 310 315 322
329 329 329 329 329 329 329 329 330 330 330 330 330 330 330 330 329 329 328 329 328 328 328 328 327 325 323 323 320 315 310 309 310
331 331 331 331 331 330 330 330 331 330 330 330 330 330 330 329 329 328 328 328 328 327 327 327 327 328 327 326 325 324 323 319 312
331 331 331 332 331 330 330 330 330 329 329 328 328 328 328 327 326 326 326 327 328 327 327 326 325 325 325 329 332 330 328 326 324
330 331 331 331 329 329 328 327 327 326 325 325 324 322 323 323 323 323 326 326 326 326 326 326 325 324 324 325 325 327 329 329 328
329 330 328 324 325 323 322 319 319 319 318 319 318 318 319 319 318 321 323 324 325 325 325 324 324 323 323 323 323 324 325 325 326
321 317 314 312 313 313 310 311 311 311 312 312 313 312 313 312 317 321 320 323 324 322 319 321 323 324 324 323 323 324 324 324 325
311 309 309 309 310 310 309 309 309 309 309 309 309 309 311 313 312 315 319 320 315 313 314 314 317 320 322 321 318 321 321 321 322
309 310 310 310 310 308 307 305 305 305 305 306 305 308 307 309 309 306 306 307 309 311 313 314 314 313 312 316 317 316 317 317 319
311 310 308 306 305 303 301 300 299 300 300 303 303 304 305 304 304 304 305 307 307 307 309 310 307 309 307 310 312 313 313 316 318
308 307 306 304 302 299 297 296 296 298 300 299 300 300 301 303 304 303 302 302 302 298 300 301 301 303 305 308 310 310 312 312 312
308 305 303 301 298 296 295 294 294 295 298 296 297 299 300 301 300 300 299 298 297 298 299 301 301 301 303 306 309 309 308 307 309

GFSFLT1_850_thetae_027.txt.gz
Theta_e
329 328 324 319 315 312 311 311 310 310 312 311 310 310 312 310 311 311 313 319 319 319 323 320 321 316 319 326 329 327 327 322 313
330 329 323 321 314 312 311 312 312 313 314 313 312 312 312 312 311 311 311 316 321 324 325 326 322 317 316 318 320 322 324 315 312
331 330 326 316 313 312 313 314 315 316 316 316 316 316 315 315 315 314 312 312 313 322 326 321 313 314 321 328 325 318 311 313 311
327 327 316 314 313 314 315 316 317 317 318 318 318 319 320 321 321 319 317 317 316 316 327 319 311 310 311 322 323 328 321 315 312
317 317 316 316 315 316 317 318 318 319 319 320 321 325 324 324 324 324 324 323 322 321 325 323 318 312 308 310 320 323 326 328 326
327 323 320 317 316 317 318 319 320 321 323 323 324 326 325 326 326 327 327 327 326 326 325 324 323 322 321 315 312 313 324 325 326
328 326 322 321 321 321 321 323 323 324 325 326 328 329 329 329 328 328 328 327 327 328 328 327 327 327 327 325 323 321 318 323 325
326 325 325 326 325 324 324 325 326 327 328 329 329 329 329 329 330 329 329 329 329 329 328 328 328 327 327 327 329 328 327 324 320
328 328 327 327 327 328 329 329 329 329 329 329 329 328 329 329 328 327 327 327 327 328 328 328 327 327 327 327 327 329 329 329 326
328 329 329 329 330 330 329 329 329 328 328 329 329 329 328 327 326 326 326 326 327 325 325 327 325 328 328 328 327 326 328 329 329
330 330 329 330 330 329 329 329 328 328 328 326 323 318 315 316 315 315 317 319 318 318 321 322 328 328 327 325 323 321 324 324 327
330 330 329 329 328 328 328 328 327 323 315 314 312 311 312 312 312 312 312 312 315 318 320 322 323 325 325 326 325 324 321 322 321
329 328 328 327 327 326 323 316 311 311 311 310 310 309 309 308 309 307 308 312 315 318 320 319 318 317 316 315 317 321 322 324 325
327 326 325 320 314 311 311 311 310 308 307 306 306 305 305 305 306 309 312 312 313 314 314 312 312 312 311 312 312 315 317 318 320
320 312 310 311 311 310 308 308 307 304 303 303 303 303 303 304 307 306 306 307 303 303 303 305 305 306 306 309 308 307 309 310 309
310 311 310 309 309 308 307 306 304 303 301 301 301 301 301 302 303 303 302 300 300 302 301 300 298 299 300 300 300 299 299 301 306
310 310 309 308 308 306 304 302 300 299 296 296 297 297 299 302 298 299 297 298 300 299 296 295 294 294 294 296 298 299 298 298 305
310 310 309 308 306 304 301 298 296 296 296 294 295 296 297 294 297 295 297 300 296 294 293 293 293 294 297 298 298 296 294 302 304
310 310 309 307 304 300 298 296 295 294 294 294 293 294 293 295 296 295 293 293 293 292 292 292 293 296 293 295 297 296 297 299 301
309 308 306 303 300 298 296 295 294 293 293 293 293 293 293 292 294 293 292 292 292 291 292 291 293 292 294 291 290 293 294 296 297

GFSFLT1_850_thetae_030.txt.gz
Theta_e
329 324 321 320 316 313 312 312 311 311 312 313 310 311 311 311 311 311 311 312 318 320 325 324 324 321 318 320 327 328 328 327 327
330 328 323 317 312 312 312 312 313 314 315 316 315 315 315 315 314 314 313 312 315 318 325 326 327 327 325 322 325 325 326 327 327
331 330 326 315 313 313 314 315 316 316 318 318 318 319 319 321 322 321 318 316 313 316 322 326 326 323 325 326 328 329 328 325 325
327 325 317 314 314 315 316 317 317 318 318 319 320 321 324 324 325 325 324 323 323 322 321 326 327 325 320 319 322 329 327 328 328
318 319 318 317 316 316 317 318 319 320 321 322 323 324 324 325 325 325 326 326 326 326 326 325 327 325 324 323 320 313 324 325 325
325 323 322 319 319 319 320 321 322 323 324 325 326 328 328 328 328 328 328 328 328 327 327 328 327 327 327 327 326 325 323 317 323
324 324 323 323 324 323 323 323 324 325 326 328 329 329 329 328 329 328 328 327 328 328 329 329 328 328 327 327 326 327 329 327 325
325 324 324 325 325 326 326 328 328 329 328 328 328 328 328 328 327 327 327 326 326 328 329 327 328 328 328 327 327 327 327 327 328
328 327 327 327 328 329 329 329 329 328 328 328 328 329 329 329 328 326 326 326 326 326 325 325 324 325 325 325 328 329 328 327 328
329 328 328 329 329 329 328 328 327 327 327 327 328 328 326 324 319 317 317 318 321 324 323 321 322 323 326 327 326 325 325 323 321
330 330 330 328 329 328 328 327 327 327 325 325 321 315 312 312 313 313 313 312 311 311 313 318 319 321 325 326 324 325 326 325 323
331 330 328 328 327 327 327 326 326 324 314 311 311 311 310 310 309 309 309 310 308 311 315 317 319 319 319 319 319 320 321 321 320
328 328 326 326 325 325 324 313 311 311 310 309 308 307 305 305 304 304 305 309 311 313 312 313 315 314 311 310 311 312 313 313 315
326 325 325 321 313 311 310 309 309 308 307 306 305 304 303 304 306 309 309 307 306 304 303 303 305 306 305 304 305 306 307 308 309
324 314 310 310 310 309 308 308 306 304 303 303 303 303 302 303 301 301 303 302 301 300 300 303 301 300 298 297 298 299 300 302 303
310 310 310 309 309 308 307 305 303 301 300 300 301 301 300 300 302 301 299 298 297 298 301 298 295 295 295 295 295 295 296 298 300
310 310 310 309 309 307 304 302 300 298 296 295 296 296 298 301 299 298 295 295 295 295 295 294 293 293 293 293 294 293 293 294 298
310 310 310 309 306 303 301 298 297 296 294 293 294 294 295 293 295 294 294 293 293 293 293 293 292 292 291 292 291 292 292 294 299
310 310 309 306 302 300 297 295 294 294 293 293 292 292 292 291 292 292 292 291 291 291 291 291 291 290 291 290 290 290 292 293 296
310 308 305 301 299 297 295 294 293 293 293 292 292 292 291 290 291 291 290 290 290 290 290 290 289 290 290 290 290 291 291 293 295

GFSFLT1_850_thetae_033.txt.gz
Theta_e
329 323 320 318 314 312 311 311 311 310 311 312 311 312 312 312 313 313 312 311 311 319 320 325 324 325 323 324 324 327 328 327 327
330 327 324 318 312 312 313 313 313 314 314 315 315 317 318 318 320 321 320 317 312 314 319 325 326 326 328 329 324 325 325 325 327
331 329 327 316 314 314 315 316 316 317 318 319 319 319 321 324 324 324 323 322 321 320 318 319 326 326 325 320 325 326 327 327 328
329 327 318 315 315 316 317 317 318 318 319 320 320 322 325 325 325 325 325 326 326 326 326 325 325 327 326 324 323 320 317 327 325
321 317 317 317 317 317 317 319 319 321 323 324 324 325 327 328 328 328 328 328 328 327 327 327 327 328 327 326 326 326 325 320 321
324 323 322 321 322 322 322 323 323 324 325 326 328 328 328 328 328 328 328 328 327 328 328 328 329 329 328 327 327 326 326 328 328
325 324 324 324 325 325 325 326 326 327 328 328 328 328 328 328 327 327 327 326 326 326 327 329 329 329 329 328 328 327 327 327 327
325 325 325 326 326 326 327 329 328 328 328 327 327 327 327 328 328 328 327 327 326 324 324 325 326 326 325 326 326 325 327 329 328
327 327 326 327 328 329 328 328 327 327 327 326 326 326 328 327 326 325 322 320 320 322 324 325 325 324 324 324 324 326 327 326 328
329 328 328 328 328 328 327 327 327 326 326 325 325 325 325 320 315 313 314 314 314 313 313 313 315 317 318 320 325 327 327 326 327
330 330 330 330 327 327 326 326 326 325 325 324 322 314 312 311 310 310 310 311 310 310 309 310 313 316 318 320 321 321 322 323 324
330 328 327 326 326 325 325 325 324 323 316 311 310 310 308 307 306 305 305 305 305 307 309 311 313 314 314 315 316 316 315 315 315
328 327 326 325 325 324 322 313 310 310 310 309 308 307 306 305 304 303 304 306 308 308 306 305 304 306 307 308 309 309 309 309 310
326 325 325 321 312 310 310 309 309 308 307 306 305 304 303 303 303 305 307 306 303 302 302 301 301 302 302 301 301 299 300 301 303
326 322 311 310 310 309 308 308 306 304 303 303 303 302 302 301 303 300 300 301 300 297 298 299 300 300 296 295 295 295 296 296 297
311 310 310 310 310 310 308 304 302 301 301 301 302 301 301 299 299 301 300 299 297 296 295 295 295 295 295 294 294 294 294 295 297
310 310 310 311 309 307 303 302 300 298 297 296 297 296 297 299 300 297 297 295 295 294 294 294 294 293 294 293 293 293 293 293 296
310 311 311 309 305 302 301 299 297 296 295 293 294 293 293 292 294 294 294 293 293 292 292 292 292 292 292 291 292 292 291 293 296
311 311 309 305 302 300 298 297 295 294 293 293 292 292 291 290 291 291 292 292 291 291 291 291 290 290 290 290 290 290 290 292 295
310 309 306 303 300 298 296 295 294 293 293 292 292 291 290 290 290 289 289 290 290 290 289 289 289 289 289 289 288 289 291 292 293

GFSFLT1_850_thetae_036.txt.gz
Theta_e
328 321 320 315 312 311 311 311 311 311 311 311 311 312 313 314 316 317 317 315 312 311 315 317 323 323 325 323 322 323 329 331 328
328 326 324 316 313 313 314 314 315 315 314 315 317 317 318 321 323 322 321 319 318 315 314 315 325 326 326 327 327 320 319 323 324
331 329 326 316 315 315 316 316 317 317 318 319 320 320 322 324 324 325 325 325 325 325 325 324 321 326 327 323 318 321 324 325 327
329 328 322 316 316 316 317 318 318 319 321 323 323 324 325 325 326 327 327 327 327 327 326 326 325 325 326 326 325 325 324 319 323
329 321 318 320 319 318 319 321 321 323 324 325 325 327 328 328 328 327 328 328 328 327 328 328 328 327 328 329 327 327 326 326 326
321 323 324 323 323 323 323 324 324 325 325 326 327 328 328 327 327 327 327 327 327 327 327 329 330 329 330 330 329 328 327 327 327
325 325 324 324 325 325 326 327 327 327 328 327 327 327 327 327 327 327 327 326 326 326 325 325 325 328 329 328 328 328 328 327 327
325 324 324 325 326 326 327 328 328 328 327 326 326 325 326 326 327 327 326 326 324 322 322 324 324 324 325 324 324 324 325 326 326
327 326 326 326 327 328 327 327 326 326 325 325 325 324 325 324 324 320 316 314 314 314 314 314 315 316 318 320 321 318 324 327 327
328 328 327 328 328 326 326 326 325 325 325 324 324 324 322 317 312 312 311 310 311 311 311 311 310 310 312 314 316 319 323 322 325
328 328 329 328 327 325 324 324 324 324 323 323 319 312 310 310 308 307 306 306 305 305 306 306 307 309 312 314 316 318 319 320 320
329 327 326 325 324 323 324 323 323 316 311 310 309 309 308 307 306 305 304 303 304 305 305 306 307 308 309 310 312 313 314 313 314
328 327 325 325 324 323 319 311 310 310 309 308 307 306 305 304 303 303 303 305 306 307 305 303 302 303 302 302 301 303 304 306 308
328 326 325 324 314 310 310 309 309 308 307 306 304 304 303 303 302 303 302 301 301 302 299 298 298 298 299 300 300 298 297 297 298
328 326 320 310 310 309 309 308 306 303 303 303 302 302 302 301 301 302 301 299 299 298 296 296 296 295 295 295 295 295 295 295 295
326 312 310 310 310 310 307 303 302 302 301 301 302 300 300 299 298 299 300 300 297 296 295 295 294 294 294 294 294 294 294 294 294
311 310 310 311 311 307 304 302 300 299 298 297 297 296 297 298 300 296 296 295 295 294 293 293 293 293 293 293 293 293 292 292 294
310 310 311 311 308 305 302 300 299 298 296 294 293 293 293 292 294 294 295 293 293 292 292 292 292 291 291 291 291 291 290 290 295
310 311 311 309 306 302 300 298 297 295 294 293 293 292 290 290 290 291 292 291 291 291 291 291 291 290 290 290 289 289 289 291 294
310 310 310 307 304 300 298 296 295 293 293 292 292 291 290 289 289 288 290 291 291 290 290 289 289 289 288 288 288 287 290 292 292

GFSFLT1_850_thetae_039.txt.gz
Theta_e
327 319 317 313 312 311 311 312 314 315 314 313 312 313 315 318 320 321 320 317 315 312 312 315 318 320 324 324 321 318 326 330 332
327 326 323 315 314 314 314 315 315 316 315 318 322 319 319 323 324 324 324 322 322 321 317 316 319 327 326 326 327 326 319 324 329
329 329 325 316 315 316 316 317 317 318 318 319 320 320 323 324 324 325 325 325 325 325 325 325 324 322 325 326 322 319 319 320 322
330 327 323 317 317 317 317 318 319 320 322 323 324 324 324 326 326 326 327 327 327 326 326 328 327 326 325 325 325 325 325 324 323
330 327 318 319 320 319 320 321 323 323 324 324 325 326 327 327 327 327 327 327 327 327 328 328 329 330 330 329 329 329 329 327 326
326 321 322 321 323 323 323 324 324 325 326 326 327 327 327 327 327 327 327 326 326 324 326 326 326 326 328 330 330 330 330 329 328
323 324 324 323 324 325 325 327 327 327 327 327 326 326 325 325 326 327 327 327 327 326 325 325 325 324 324 325 325 324 324 326 328
325 324 324 324 325 326 327 328 328 326 326 325 325 324 324 324 324 323 323 320 317 315 315 315 315 318 321 322 322 322 321 322 323
326 325 325 325 326 328 327 326 326 325 324 324 324 323 323 323 321 317 312 312 311 311 312 312 312 312 312 312 314 315 317 318 317
328 328 328 327 328 326 325 325 325 324 324 323 323 322 319 312 310 309 309 308 307 306 307 307 308 308 308 309 310 312 314 315 317
328 327 327 327 327 325 324 324 323 323 322 319 312 310 309 309 308 307 306 305 304 304 304 304 305 306 308 309 311 313 314 315 316
328 327 326 325 324 323 322 323 322 313 310 309 308 307 306 305 305 304 303 303 303 304 305 305 304 304 303 303 303 304 303 304 306
329 327 326 325 324 324 319 311 310 309 308 307 306 304 304 303 303 302 302 304 305 304 302 300 299 298 297 298 299 300 300 299 300
329 327 326 325 322 310 310 309 309 307 304 303 303 303 303 302 301 301 301 300 299 299 298 298 297 296 296 296 295 295 295 295 296
328 327 326 318 310 310 310 309 305 303 303 302 302 302 301 301 300 300 300 299 299 298 297 296 296 295 295 295 295 294 294 294 294
327 326 316 310 310 311 309 306 303 302 302 301 301 299 299 298 298 298 297 296 296 296 296 295 294 294 294 294 294 294 294 294 294
325 316 310 310 311 309 307 304 302 301 300 298 297 296 297 299 298 297 296 296 295 294 293 294 294 294 294 294 293 293 293 293 293
316 310 311 311 311 309 306 303 301 299 297 296 295 294 294 294 296 295 295 294 293 293 293 293 293 293 292 292 292 292 291 291 292
310 310 311 311 310 307 304 302 299 297 295 295 294 293 292 291 291 292 292 292 292 292 292 292 292 291 291 290 290 289 289 289 294
310 310 311 310 308 305 302 299 296 295 294 294 293 292 291 290 289 290 291 291 291 291 290 291 290 290 289 288 287 287 288 291 292

GFSFLT1_850_thetae_042.txt.gz
Theta_e
320 320 315 312 312 312 312 317 323 324 321 318 314 313 315 320 328 327 326 318 317 313 311 314 316 319 322 325 323 321 317 329 331
327 327 319 314 314 314 313 312 313 313 313 316 323 326 319 325 329 329 326 324 323 323 322 321 321 320 325 326 326 327 323 320 327
329 328 323 315 316 316 317 317 317 318 319 319 320 320 322 327 328 327 326 325 325 325 324 325 325 325 323 324 324 323 321 319 317
331 328 324 316 316 317 317 318 319 320 322 323 323 324 324 326 329 327 328 327 327 327 327 328 330 329 329 327 325 326 327 325 325
329 328 320 318 319 318 320 320 322 323 323 324 324 326 326 330 328 329 327 326 327 327 327 327 326 328 329 331 332 331 330 329 329
330 326 319 320 322 322 323 323 324 325 326 326 327 327 329 329 328 328 326 326 326 326 325 325 325 325 324 324 327 329 329 329 330
324 321 323 322 324 324 325 325 326 327 329 329 326 326 325 324 324 324 323 324 324 322 322 320 318 318 321 323 324 323 323 323 322
323 325 324 324 325 327 326 327 328 326 325 325 325 324 324 323 323 322 320 316 314 312 312 312 313 313 313 314 316 316 317 317 317
328 327 325 325 326 328 328 327 325 325 324 324 324 323 323 322 319 313 310 310 309 309 310 310 310 310 311 311 311 311 311 312 313
329 327 328 327 327 327 325 325 325 324 324 323 323 321 315 310 309 308 308 307 306 305 306 306 305 305 305 306 307 308 309 311 313
328 327 327 326 327 326 325 324 323 323 322 316 310 310 309 308 307 305 305 304 303 303 304 304 304 305 306 306 307 307 308 309 309
328 328 327 326 325 324 323 323 323 314 309 309 308 307 305 304 304 303 302 302 302 303 304 304 303 301 300 299 299 299 299 301 302
329 328 327 326 325 324 323 314 310 309 308 304 303 303 303 302 302 302 302 302 303 302 301 300 299 298 298 297 297 296 297 297 296
329 329 327 326 325 321 310 310 310 308 305 303 302 302 302 301 301 301 301 300 300 299 299 299 298 297 296 296 296 295 295 295 295
331 328 326 326 319 310 310 311 310 306 303 302 301 301 300 300 300 300 300 299 297 297 297 296 296 295 295 295 295 295 295 295 295
330 326 326 320 310 310 312 311 308 304 302 301 300 299 299 298 297 298 298 298 296 296 295 295 294 295 295 295 295 295 294 294 294
329 324 320 310 310 312 311 310 307 303 301 298 298 300 299 299 298 297 296 295 295 295 294 294 294 294 294 294 294 294 293 293 293
326 319 310 310 311 312 311 308 304 301 299 297 296 299 299 296 296 296 295 294 294 293 294 294 294 293 292 292 292 292 292 291 291
319 311 310 311 311 311 309 306 302 299 296 295 295 294 293 295 295 295 294 293 293 292 292 293 293 292 292 291 291 290 289 289 290
313 310 310 310 311 310 307 304 299 296 295 295 294 293 292 292 293 293 294 293 292 291 290 290 290 290 289 289 289 289 289 290 292

GFSFLT1_850_thetae_045.txt.gz
Theta_e
320 318 314 313 312 312 326 329 330 327 330 324 314 312 315 325 330 330 329 328 322 321 315 313 313 316 317 321 322 323 324 317 327
327 324 317 314 314 312 311 312 313 312 312 312 314 316 319 323 331 330 330 330 324 324 323 324 324 324 322 323 328 325 328 321 317
327 327 320 315 315 316 316 317 317 317 318 319 320 320 322 328 330 331 330 327 326 326 325 327 329 330 330 328 323 324 325 323 320
330 329 323 316 316 317 317 318 319 320 322 323 323 323 324 325 331 330 331 328 326 327 328 329 328 327 328 330 332 330 326 328 327
332 329 322 317 318 317 320 320 322 322 323 324 324 324 327 329 329 329 329 326 326 326 326 324 324 324 325 324 324 328 331 332 332
329 327 321 319 320 321 322 323 324 324 326 326 326 326 329 328 328 328 327 324 326 326 325 325 325 322 320 321 322 321 323 327 327
334 326 320 321 322 323 324 325 326 327 329 328 326 325 324 324 323 322 321 321 320 318 315 314 313 313 314 314 315 315 317 318 318
321 324 323 324 324 328 327 328 329 326 325 324 323 322 321 320 320 319 317 313 311 311 311 311 311 312 312 313 313 312 312 312 312
328 329 329 329 329 330 330 328 326 325 325 324 323 322 322 320 316 311 310 309 308 308 309 309 309 309 308 308 307 307 307 308 309
330 329 329 329 329 328 326 325 325 324 322 321 319 315 311 310 309 308 307 307 306 306 306 306 305 305 304 305 305 307 307 309 310
330 330 328 327 326 327 326 324 324 322 320 314 309 309 307 307 306 305 305 304 304 303 303 303 304 304 305 305 304 302 301 301 300
328 327 327 326 326 325 325 324 323 318 310 310 307 305 304 303 303 303 304 303 302 302 303 304 304 303 301 300 299 298 298 298 298
328 328 327 326 326 325 324 321 311 311 309 306 304 303 303 302 302 302 302 302 301 302 301 300 300 300 299 298 297 297 297 297 297
328 328 328 326 326 325 320 311 311 309 307 304 303 302 302 302 301 302 301 301 300 300 298 298 298 298 297 296 296 296 296 296 296
329 329 329 326 326 322 311 311 311 309 307 304 302 302 300 300 300 300 300 299 299 298 297 296 295 295 296 296 296 296 295 295 295
330 330 328 326 324 311 311 312 310 309 306 303 301 301 301 299 300 299 299 299 297 296 295 295 295 295 295 295 295 295 294 294 294
331 330 328 325 311 310 312 311 310 309 305 301 301 302 301 301 300 300 298 296 296 295 295 295 295 294 294 294 294 294 294 294 293
330 327 325 317 310 311 311 311 309 306 303 299 298 300 302 300 298 298 297 296 296 295 294 295 294 294 293 293 293 292 292 292 291
328 326 320 310 310 311 311 310 309 304 300 298 297 296 295 296 296 297 296 296 295 294 294 294 294 293 292 292 291 291 290 290 291
326 321 313 309 310 311 310 309 307 302 298 297 296 295 294 294 294 295 295 294 294 293 293 292 292 292 291 291 290 290 290 291 292

GFSFLT1_850_thetae_048.txt.gz
Theta_e
317 313 312 311 311 314 329 328 329 327 326 326 314 311 316 329 330 330 330 327 324 323 322 323 321 322 321 319 319 320 327 326 316
323 318 314 313 311 311 320 320 321 319 313 312 314 317 322 329 329 330 328 328 325 325 325 326 328 330 330 328 323 323 321 326 319
326 323 316 315 315 315 315 315 315 316 317 319 320 321 322 329 330 329 329 329 326 327 327 329 329 328 328 329 331 328 325 328 324
328 327 318 315 316 317 317 317 318 319 321 322 322 323 324 329 330 326 329 329 326 326 326 327 324 324 324 325 326 328 331 332 330
331 330 319 316 317 317 318 319 320 322 323 323 323 326 328 328 328 328 327 328 325 325 325 325 324 325 323 322 322 322 322 328 330
331 328 319 317 318 319 321 322 322 326 328 328 325 327 327 327 326 326 326 323 320 320 320 319 317 316 314 314 314 315 318 319 322
330 330 323 320 320 322 323 324 326 328 328 326 324 324 323 323 322 321 319 319 316 314 312 312 312 312 312 312 312 312 312 313 313
331 327 320 322 323 327 327 329 328 326 326 324 324 320 320 320 320 319 316 312 310 310 310 310 310 310 310 310 309 308 308 308 308
324 326 328 326 328 329 328 328 327 325 324 323 323 322 320 316 314 310 310 309 308 307 308 308 307 307 306 306 305 305 305 306 306
328 329 328 329 329 328 328 326 325 324 322 321 317 311 310 309 308 307 307 306 306 305 305 305 304 304 304 304 305 305 305 304 303
330 329 329 329 327 326 326 326 325 322 318 313 310 309 307 306 304 304 304 304 304 303 303 303 303 304 304 304 302 301 300 300 299
331 330 328 327 326 326 325 325 324 317 311 311 308 306 304 303 303 303 303 303 303 302 303 303 302 301 300 300 300 299 298 298 298
330 328 327 326 326 326 324 323 316 311 312 310 307 305 304 303 302 302 302 302 302 302 301 301 299 298 298 298 297 297 297 297 297
329 327 327 327 326 325 324 317 311 312 312 310 307 305 303 302 302 301 302 301 300 300 299 298 298 297 297 297 297 297 296 296 296
329 328 328 327 326 325 322 311 312 312 311 309 305 304 302 300 300 300 300 299 299 299 298 297 297 296 296 296 295 296 296 295 295
329 328 328 328 326 325 312 311 313 312 311 308 304 302 302 301 301 300 300 299 298 298 297 296 296 296 295 295 295 295 295 295 294
330 329 329 329 326 321 311 312 312 311 309 306 304 302 301 301 302 300 299 299 297 296 296 296 295 295 295 294 294 293 293 293 293
330 330 330 329 326 314 311 312 312 311 309 305 302 300 301 301 299 298 298 297 297 297 296 295 295 294 294 294 293 293 292 292 293
329 329 329 328 322 311 311 311 311 310 307 304 301 298 297 297 297 297 297 297 296 296 295 294 294 293 293 293 292 292 291 292 294
326 327 327 324 314 310 310 311 311 309 305 302 299 298 297 295 295 295 296 295 295 294 293 293 292 292 292 292 291 291 291 292 293

GFSFLT1_850_thetae_051.txt.gz
Theta_e
313 311 311 311 312 327 329 333 332 333 330 328 314 312 324 329 328 329 328 327 324 324 328 323 326 326 326 323 321 323 318 327 322
315 312 312 311 311 317 322 321 321 320 315 312 316 318 327 328 329 329 327 327 326 326 329 328 329 329 331 332 331 325 320 320 322
318 314 313 314 313 312 312 313 313 314 317 319 320 321 326 329 329 328 328 328 327 327 328 329 328 327 327 326 328 332 332 329 328
324 317 314 315 316 316 316 317 317 319 321 321 322 323 328 329 328 327 327 327 327 325 324 324 324 323 323 322 323 324 327 331 332
329 324 316 316 316 317 318 319 320 321 321 322 323 327 328 327 326 327 326 326 326 321 322 323 323 323 320 318 316 319 321 321 325
331 327 317 317 317 318 320 321 322 325 326 325 327 327 326 326 325 325 325 324 320 318 317 315 314 313 313 313 313 313 313 313 315
329 326 319 318 319 320 322 323 325 326 327 325 324 324 323 323 323 321 319 318 315 313 312 312 312 312 312 311 311 310 310 310 310
329 327 320 320 321 323 325 325 326 325 326 325 324 322 321 320 320 319 317 313 310 312 310 310 310 310 309 308 307 306 305 305 305
330 326 322 323 325 328 327 326 327 326 325 324 323 321 320 316 312 310 309 308 307 308 307 307 306 306 305 304 304 304 305 305 305
325 324 327 325 328 328 327 328 326 324 323 320 317 312 310 309 307 306 305 305 305 305 305 304 304 303 303 304 304 303 302 301 301
323 327 328 327 328 328 328 327 325 324 320 317 311 310 308 305 304 304 303 303 303 303 303 302 303 303 303 301 300 300 300 300 299
328 329 328 328 328 327 326 326 325 321 314 311 310 308 306 304 303 303 303 303 303 302 302 302 301 301 299 299 299 299 298 298 298
330 330 329 329 327 326 325 324 324 316 312 311 310 308 305 303 303 303 302 302 302 301 301 300 300 299 298 298 297 297 297 297 297
331 331 329 327 326 326 325 323 315 311 312 312 310 308 304 302 302 301 301 301 300 300 299 299 298 298 297 297 297 297 296 296 296
332 331 328 327 327 326 325 322 311 312 313 312 311 307 303 302 301 301 300 300 300 299 298 298 297 297 296 296 296 295 295 295 296
331 330 328 327 327 326 325 318 311 313 313 312 309 306 304 302 302 301 301 300 299 298 298 297 297 296 296 296 295 295 295 294 294
332 330 328 327 328 327 326 315 311 313 313 312 309 304 304 303 302 301 299 299 299 297 297 297 296 296 295 295 294 294 293 293 295
332 331 329 328 328 327 325 313 311 312 313 311 309 303 302 301 299 299 299 299 298 297 297 296 295 294 294 293 293 293 292 292 295
332 331 329 328 328 326 320 312 312 312 312 311 307 302 300 299 298 298 297 298 297 296 296 295 294 293 292 292 292 292 292 292 295
333 331 328 327 326 320 313 311 311 311 311 308 304 301 299 298 297 297 297 296 296 295 295 294 293 292 292 291 291 291 291 292 293

GFSFLT1_850_thetae_054.txt.gz
Theta_e
311 311 311 314 326 329 332 332 332 331 331 328 314 316 325 327 327 328 326 325 324 324 325 326 329 329 329 329 324 323 320 324 325
312 311 311 311 323 326 330 331 331 330 318 312 313 320 328 327 327 327 327 327 328 330 329 329 330 329 331 330 331 331 324 320 322
313 313 312 311 313 321 320 316 314 313 315 318 319 326 328 328 328 327 327 327 327 325 325 327 328 326 325 326 327 331 333 332 331
316 314 314 315 315 314 315 315 317 319 320 321 322 325 329 328 327 327 326 326 327 325 323 324 323 324 326 323 322 324 326 329 331
322 315 315 316 316 317 317 318 320 320 321 322 326 328 328 326 326 326 326 326 325 322 319 321 324 325 318 316 314 314 315 319 321
328 321 316 316 316 318 319 320 321 322 323 324 327 326 326 326 326 325 325 324 321 318 316 317 315 314 313 313 313 312 312 312 312
330 325 316 317 318 320 321 322 324 325 324 325 325 325 324 323 323 323 320 319 317 313 313 312 313 312 311 310 309 308 308 307 307
328 326 320 318 320 321 322 323 324 325 326 325 324 323 320 320 320 319 318 316 310 315 311 310 310 309 308 306 305 304 304 305 305
326 326 320 320 321 324 325 326 326 325 324 324 323 322 320 318 316 313 309 308 308 309 307 307 306 305 304 303 304 304 304 303 302
327 327 322 322 324 326 326 326 326 326 324 323 320 317 313 310 308 307 305 304 305 305 305 304 303 303 303 303 303 302 301 301 301
327 326 324 326 326 327 327 327 327 325 324 320 316 312 310 307 305 304 303 303 303 303 303 302 302 303 301 300 300 299 300 300 299
327 322 325 327 326 327 327 327 327 325 322 317 311 309 308 306 304 303 303 303 303 302 302 302 301 300 299 298 298 298 298 298 298
328 325 327 328 328 328 327 326 325 324 320 311 311 309 306 305 303 303 302 302 302 301 301 300 299 299 298 297 297 297 297 297 297
328 328 329 328 328 328 326 325 323 321 312 311 311 309 306 304 303 302 301 301 301 300 300 299 298 297 297 297 297 296 296 296 296
329 329 329 329 328 328 325 325 323 315 311 312 311 309 306 304 302 302 301 300 300 299 299 298 297 297 297 296 296 296 295 295 295
330 330 330 330 329 326 326 325 324 311 312 312 311 309 306 304 303 302 301 300 300 299 298 298 297 297 296 296 295 295 295 294 294
331 330 331 331 329 326 326 325 324 311 312 312 310 308 306 305 303 302 301 300 299 299 298 297 297 296 295 295 294 294 294 294 294
331 331 331 331 329 327 327 326 322 311 312 312 311 308 306 304 302 300 299 300 300 298 297 296 296 295 294 294 293 293 293 293 295
331 331 331 331 329 327 327 325 317 311 312 312 311 308 306 302 300 299 299 299 298 297 296 295 294 293 293 293 292 292 292 292 295
330 329 331 331 329 327 326 323 317 311 311 311 309 306 305 302 299 298 298 297 296 296 295 295 294 293 292 292 291 291 290 291 294

GFSFLT1_850_thetae_057.txt.gz
Theta_e
311 311 311 323 331 328 336 333 332 332 330 327 313 321 325 326 324 325 324 326 327 328 328 330 332 331 332 332 330 324 325 320 326
311 311 311 318 324 329 330 331 331 331 323 312 314 324 326 326 326 326 325 329 330 331 330 328 327 328 328 327 329 332 330 324 324
312 311 311 313 321 325 328 327 324 316 314 316 317 326 325 326 326 325 325 327 327 324 323 323 325 324 327 328 328 331 333 333 333
313 313 312 312 315 319 315 314 314 317 319 319 322 324 326 326 326 326 326 326 324 323 319 321 325 326 325 321 320 320 323 326 330
314 314 315 315 315 315 316 317 319 320 321 321 322 324 327 326 325 326 325 325 325 321 317 321 324 322 315 313 313 312 313 314 319
318 315 315 316 316 317 318 319 320 321 322 322 325 326 326 326 325 325 324 323 320 318 315 315 314 313 312 312 311 311 311 311 311
324 319 316 316 317 318 319 320 322 324 324 324 325 325 324 323 323 323 321 319 318 316 312 312 312 311 310 309 308 307 306 306 306
329 325 316 317 318 319 320 322 324 325 325 324 324 323 322 320 320 319 318 317 317 315 309 309 308 308 307 305 304 304 304 304 304
328 326 321 318 319 321 322 323 324 325 325 325 324 323 321 319 317 314 310 308 310 310 307 306 306 305 304 303 303 304 303 303 302
327 325 323 320 321 322 324 325 325 325 325 324 322 319 316 312 309 307 305 304 304 305 305 304 304 303 303 303 302 301 300 300 301
327 327 326 322 322 324 326 326 326 326 325 323 320 317 312 309 307 305 304 303 303 303 303 303 302 302 301 300 299 299 299 298 298
326 327 326 325 325 327 327 327 327 326 325 323 318 312 310 308 306 304 303 303 303 302 302 302 301 300 299 299 299 298 298 298 298
326 327 324 324 327 327 327 327 326 326 324 323 314 310 309 307 305 303 303 302 302 301 301 300 299 299 298 297 297 297 297 297 297
328 327 326 326 328 327 327 327 326 325 323 321 311 310 310 307 304 303 302 302 301 300 300 299 298 298 297 297 297 297 296 296 296
331 329 327 327 328 328 327 327 325 324 320 312 311 310 309 307 304 302 302 301 301 300 300 299 298 298 297 297 296 296 295 295 295
331 331 328 328 329 328 328 327 325 324 320 310 311 310 308 306 304 303 302 301 301 300 299 299 298 297 297 296 296 295 295 294 294
332 331 329 329 329 329 329 328 325 324 319 310 311 308 307 306 304 303 302 301 300 300 299 298 297 297 296 296 295 295 295 294 294
333 331 329 330 330 330 330 328 326 325 320 311 311 309 309 305 304 303 302 301 300 300 299 297 296 296 295 294 294 294 293 293 294
331 330 329 329 330 330 329 327 326 325 319 311 311 311 310 306 303 302 301 300 300 300 298 297 295 295 294 294 293 293 292 292 294
329 329 329 329 330 330 328 326 325 325 317 311 311 310 309 307 303 300 300 299 298 297 296 295 295 294 293 293 292 292 291 290 290

GFSFLT1_850_thetae_060.txt.gz
Theta_e
311 311 314 332 328 330 336 336 331 331 329 327 315 318 323 323 323 323 326 329 331 331 330 331 332 333 332 328 331 329 327 323 323
311 311 312 324 327 334 334 332 331 330 328 314 313 323 325 325 325 324 329 330 331 329 327 325 326 326 329 328 331 332 333 331 331
311 311 311 317 326 328 331 330 330 328 313 314 320 326 326 326 326 324 325 328 326 324 321 322 323 322 325 327 326 330 331 331 331
312 311 311 314 319 323 324 322 316 313 317 318 321 326 326 326 325 325 325 326 324 322 320 324 327 325 323 319 318 317 318 323 325
313 313 313 313 315 315 314 314 317 319 319 320 323 324 326 325 325 325 325 324 322 319 319 318 320 317 314 312 312 312 312 312 313
314 314 315 315 315 316 316 318 320 320 321 322 323 325 326 325 325 325 324 322 319 319 315 314 313 312 311 310 310 309 309 308 308
318 315 315 316 316 317 318 320 321 321 322 322 324 325 325 324 323 322 320 318 321 317 311 311 311 309 308 307 306 305 305 305 304
326 321 316 316 317 318 319 321 322 324 323 324 324 323 322 321 320 318 317 316 318 311 308 307 306 306 305 304 304 304 304 304 304
328 326 317 317 318 319 321 322 325 325 325 325 324 323 322 319 317 314 310 309 313 309 306 305 305 304 303 303 303 303 302 302 301
325 327 322 319 319 320 321 323 324 325 324 324 323 322 318 315 310 308 306 305 305 305 304 304 303 303 303 302 301 300 300 299 299
324 327 325 323 320 321 323 325 325 325 325 324 323 320 317 311 309 306 304 303 303 303 303 303 302 302 301 300 300 300 299 299 299
322 326 326 325 321 322 324 326 326 326 326 324 323 319 313 310 307 305 304 303 303 303 302 302 301 300 299 299 299 298 298 299 299
320 325 327 327 325 325 326 327 327 326 326 324 323 318 310 309 307 304 303 303 302 302 301 300 300 299 299 298 298 298 298 298 298
321 323 327 327 324 326 326 327 327 326 325 323 322 314 310 309 306 304 303 302 302 301 300 300 299 299 298 298 298 297 297 297 297
328 324 327 327 323 326 327 327 327 326 324 322 321 310 310 309 307 304 303 302 302 301 301 300 299 299 298 298 297 297 297 296 296
332 329 329 328 326 326 327 327 327 326 324 321 316 310 310 309 307 304 303 302 302 301 301 300 299 299 298 297 297 296 296 295 295
331 331 330 329 327 327 328 328 327 326 323 322 315 309 309 309 308 305 303 303 302 301 301 300 300 298 298 297 296 296 295 295 294
331 331 330 329 329 328 328 328 328 327 325 323 315 310 311 308 307 305 304 303 303 301 300 300 299 298 297 296 295 294 294 293 293
330 331 329 328 330 329 329 329 328 327 324 323 319 311 310 308 307 306 305 303 302 301 300 300 298 297 296 295 294 293 293 292 292
329 328 328 327 329 329 329 329 328 327 325 324 321 311 310 309 307 304 305 302 301 300 299 298 297 296 295 294 293 292 292 291 291

GFSFLT1_850_thetae_063.txt.gz
Theta_e
310 311 331 326 319 324 331 336 335 330 330 327 313 320 322 322 323 325 329 331 332 331 330 329 333 332 331 330 332 332 328 325 322
311 312 331 329 327 333 335 333 329 331 329 317 315 323 323 324 323 328 330 331 329 328 325 323 327 329 328 329 332 333 333 333 333
311 311 315 324 327 334 333 331 331 330 323 312 319 324 324 324 323 324 327 328 324 322 318 324 324 322 323 325 325 328 330 330 331
311 311 315 321 326 329 330 329 328 321 314 315 320 324 325 324 324 323 324 325 322 320 324 326 325 322 319 314 314 315 316 319 323
312 311 313 318 321 323 322 317 314 315 318 320 323 325 326 325 324 324 324 323 320 320 318 318 314 314 313 312 311 311 311 311 311
313 313 313 315 318 316 314 315 318 319 320 321 322 324 326 325 325 324 324 321 323 320 315 313 311 311 310 309 308 308 307 307 306
314 315 315 315 315 315 316 318 319 320 321 322 324 325 325 324 324 323 320 319 322 318 312 310 309 308 307 306 305 304 304 304 304
319 315 315 316 316 317 318 319 320 322 322 323 324 324 323 322 320 319 317 319 321 312 309 306 306 305 305 304 304 304 304 304 303
326 321 317 316 316 318 319 320 321 323 324 323 324 323 322 321 318 315 311 314 317 309 306 305 304 304 303 303 303 302 302 301 301
325 328 324 317 318 319 320 321 322 323 323 324 324 323 321 317 313 309 307 306 306 306 304 304 303 303 303 302 301 301 300 300 300
324 326 328 321 318 319 321 322 323 324 324 325 324 322 319 316 311 308 306 304 304 304 303 303 302 302 301 300 300 300 299 299 299
321 324 327 326 323 320 321 323 325 325 325 325 324 322 319 313 309 307 305 303 303 303 303 302 302 301 300 299 299 299 299 299 299
321 322 326 326 325 321 321 323 325 326 326 325 324 323 319 311 309 307 305 304 303 302 302 301 301 300 299 298 298 299 298 298 298
329 323 322 327 328 326 324 324 326 326 326 325 324 322 321 310 309 307 305 303 303 302 302 301 300 300 299 298 298 298 298 298 298
333 330 322 325 329 328 325 326 326 326 326 325 323 322 318 309 308 307 305 304 303 302 302 301 300 300 299 299 298 298 298 297 297
332 331 326 322 327 327 324 326 327 327 326 324 322 321 314 309 309 308 305 304 303 302 302 302 301 300 300 299 298 298 297 296 296
332 331 331 327 326 327 326 325 327 327 326 324 322 315 312 309 309 309 307 304 303 303 302 302 301 300 300 299 298 297 297 296 296
331 331 331 331 329 329 328 326 327 327 326 325 321 315 313 311 310 309 308 306 305 303 303 302 301 301 300 298 297 296 295 295 294
331 331 330 329 329 330 329 327 327 328 327 325 324 322 317 310 309 309 308 306 305 304 303 302 301 301 299 298 296 296 295 294 293
331 331 329 328 329 328 329 329 327 327 327 327 326 321 318 312 310 308 309 308 305 304 302 301 300 299 298 296 295 294 293 293 292

GFSFLT1_850_thetae_066.txt.gz
Theta_e
311 311 321 323 322 331 336 336 335 330 329 323 316 320 320 323 329 332 331 335 333 332 329 332 332 332 331 333 334 332 330 328 322
311 317 330 324 329 331 335 335 333 329 329 316 320 322 322 328 330 332 332 332 331 326 325 324 327 327 328 330 332 334 333 333 333
311 320 332 330 331 331 334 333 329 330 326 312 322 323 324 328 329 331 332 327 324 321 320 322 323 322 321 324 325 326 330 331 331
311 312 321 329 332 334 333 331 330 328 314 315 323 324 324 329 328 329 330 325 323 325 326 323 320 320 317 314 313 315 316 319 322
311 312 318 325 329 331 331 328 326 315 317 317 322 324 325 329 328 328 328 323 323 323 320 317 313 312 312 311 311 311 311 311 311
312 312 315 319 324 326 324 317 314 317 319 320 322 323 328 328 327 327 323 320 324 321 315 312 310 310 309 308 308 307 306 306 306
319 313 314 316 319 318 315 315 318 320 322 321 322 327 327 326 325 325 321 321 322 317 311 308 307 307 307 306 305 304 304 304 304
315 315 315 315 315 316 316 318 320 323 325 322 325 325 325 324 322 320 318 320 319 316 308 306 305 305 305 304 304 304 303 303 302
326 323 322 319 318 325 326 328 326 321 322 323 324 323 323 322 320 317 315 315 315 313 307 305 304 304 303 303 303 302 301 301 300
330 330 324 321 324 325 326 326 323 324 324 324 324 323 322 321 317 314 309 309 310 308 305 304 304 303 303 302 301 301 301 300 300
330 330 329 326 318 323 325 326 323 323 323 324 324 323 322 319 316 314 313 306 307 306 304 304 303 302 302 301 301 300 300 300 300
326 330 329 328 324 320 322 324 322 323 324 324 325 324 322 319 315 310 317 308 305 304 304 303 302 301 301 300 299 299 300 300 300
321 323 328 328 328 325 322 321 322 324 325 325 325 324 323 320 312 309 307 307 307 304 303 302 302 301 300 299 299 299 299 299 299
326 325 324 326 329 327 324 322 322 325 325 326 325 324 323 322 313 309 308 306 304 304 303 302 301 300 300 299 299 299 299 298 298
332 330 330 326 328 328 327 325 322 324 326 326 325 324 323 321 315 309 308 306 304 303 303 302 301 301 300 300 299 299 298 298 298
333 333 332 331 326 326 328 327 325 325 326 327 325 324 322 321 315 309 308 308 306 304 303 302 302 301 300 300 300 299 299 298 297
331 332 332 331 329 325 326 328 327 325 326 327 319 316 317 321 317 310 309 308 307 305 304 303 302 302 301 301 300 299 298 298 297
331 331 331 331 331 328 323 326 327 325 326 327 322 318 319 314 317 314 309 308 307 305 305 303 302 302 301 300 300 299 298 297 296
331 330 331 331 330 330 329 327 327 327 325 326 326 325 319 314 311 312 310 308 306 305 304 303 302 302 301 300 299 298 297 296 295
326 328 330 331 331 330 329 328 328 328 326 326 327 325 324 322 317 312 313 310 307 305 303 302 302 301 301 299 298 297 296 295 294

GFSFLT1_850_thetae_069.txt.gz
Theta_e
315 313 315 326 321 333 337 336 334 331 328 315 317 318 323 330 332 333 334 333 333 332 330 333 333 332 333 334 333 334 334 328 323
311 321 321 324 327 336 337 335 334 329 328 314 322 321 327 331 331 332 332 332 329 329 326 324 325 327 327 330 333 333 333 333 332
312 327 326 332 329 334 335 335 332 329 327 313 322 322 326 330 330 331 331 326 323 326 321 321 323 322 321 323 325 326 328 331 331
312 320 331 333 330 330 333 334 329 328 318 314 322 322 327 330 329 330 328 323 325 326 324 317 315 316 315 314 313 313 314 316 320
312 313 320 331 332 333 333 332 328 325 314 316 322 323 325 330 329 329 328 321 325 322 317 314 312 311 311 310 310 310 310 310 310
312 313 318 327 326 329 331 327 322 314 318 319 322 323 330 329 329 329 323 322 323 321 315 310 308 308 308 307 306 306 305 305 305
319 314 315 318 323 326 323 317 315 318 321 320 321 326 329 328 328 327 321 320 321 319 312 308 306 306 306 305 304 304 304 304 304
320 315 314 315 318 319 316 315 318 323 328 326 326 328 328 326 325 322 318 318 318 316 310 306 305 305 305 304 304 304 303 302 302
325 327 320 322 319 326 322 326 327 329 328 326 326 326 325 324 322 321 317 317 313 312 308 305 304 304 304 304 303 302 302 301 301
330 327 327 328 328 328 329 330 329 329 327 324 325 324 323 321 319 317 315 311 310 309 307 305 304 304 303 303 302 301 301 301 301
331 332 330 328 327 328 329 329 329 328 327 324 323 322 322 322 319 316 316 310 308 307 307 304 304 303 303 302 302 301 300 300 300
331 333 332 331 329 327 328 328 328 326 325 322 320 321 320 322 320 316 319 316 309 307 306 304 303 303 302 301 301 301 301 300 300
331 332 332 332 332 328 327 328 328 325 323 322 320 322 323 322 319 316 315 317 312 308 305 304 303 302 301 301 300 300 300 300 300
330 332 331 331 331 331 328 327 327 324 322 322 321 324 324 324 320 316 311 311 311 308 307 305 303 302 301 300 300 300 300 299 299
332 332 331 331 331 330 330 328 326 325 323 321 320 324 324 324 322 321 312 310 309 306 307 305 304 302 301 300 300 299 299 299 299
334 333 332 332 331 330 331 329 327 324 324 322 319 321 324 324 323 321 315 310 310 307 305 305 303 303 302 301 300 300 300 299 299
331 333 333 332 332 331 330 331 329 325 324 323 321 320 320 323 323 321 317 310 309 308 305 304 303 302 303 303 302 301 300 300 299
334 331 332 333 332 332 331 329 330 326 326 325 324 321 320 320 317 319 318 310 308 308 306 304 303 302 301 302 302 301 300 300 298
330 333 333 332 332 332 331 330 328 326 326 326 325 324 322 320 314 314 313 310 307 307 305 305 303 303 301 302 302 302 300 299 298
325 327 328 330 331 331 332 331 329 328 325 326 326 325 324 322 316 314 314 309 308 306 305 306 304 303 302 302 301 300 299 299 297

GFSFLT1_850_thetae_072.txt.gz
Theta_e
315 312 315 317 327 337 337 334 332 328 319 316 317 324 331 331 330 330 333 333 333 331 333 333 331 330 332 334 334 334 331 332 326
312 321 322 327 328 337 337 334 333 328 321 318 319 325 331 330 330 330 331 331 329 329 326 323 321 323 325 330 332 332 333 333 332
320 325 328 329 336 336 335 333 333 327 321 318 321 327 330 330 329 329 328 325 328 325 321 320 320 321 320 322 324 325 327 330 330
315 325 331 329 331 334 333 333 330 327 316 317 321 325 329 329 329 329 328 322 327 325 320 315 313 313 314 313 312 312 312 313 316
313 314 324 329 329 330 331 332 327 324 314 316 321 322 329 327 328 328 327 321 325 320 316 312 309 308 309 309 308 308 308 309 309
312 313 317 327 325 323 328 328 324 316 316 317 321 323 329 329 328 328 327 319 320 319 313 308 307 306 306 306 305 305 305 305 305
313 313 315 317 319 322 324 322 316 315 318 319 320 327 329 329 328 327 324 318 317 316 312 307 306 305 305 305 304 304 304 304 304
320 317 314 315 316 320 319 316 315 319 324 325 321 328 328 328 326 324 320 316 315 314 311 307 305 305 305 304 304 304 303 302 302
324 317 315 315 315 316 316 315 316 321 328 327 326 326 328 326 324 323 320 315 314 312 310 307 305 305 304 304 303 303 302 302 302
325 322 323 319 319 320 323 324 327 327 326 326 325 326 325 324 323 321 318 315 312 310 309 306 305 304 304 303 302 302 302 302 302
328 329 327 326 327 326 328 327 330 329 327 326 324 324 323 322 321 320 317 315 312 310 308 307 305 304 304 303 303 302 302 302 302
329 331 332 329 327 327 327 328 329 329 327 327 324 322 322 322 322 320 317 315 314 311 309 307 305 304 303 303 303 302 303 303 303
328 329 332 333 329 328 327 327 328 328 326 325 323 321 320 321 322 320 319 315 313 312 310 308 305 304 303 303 302 303 303 304 304
328 327 329 331 333 330 328 327 327 328 326 325 322 321 320 322 323 322 318 315 312 312 311 309 306 304 303 303 302 302 302 302 302
332 331 330 330 331 331 331 328 327 327 326 323 321 320 321 323 323 323 321 317 312 311 311 309 308 305 303 302 301 302 301 301 301
334 333 332 332 331 330 331 330 329 327 326 324 321 319 319 322 324 324 322 320 317 310 310 309 308 306 304 303 302 302 301 301 301
333 333 333 333 332 331 331 331 330 329 327 324 322 319 318 321 324 324 323 321 319 312 309 309 308 307 305 304 302 302 301 301 301
333 331 331 331 332 332 332 331 331 329 328 326 323 319 321 322 322 322 322 320 318 316 309 308 307 307 305 304 303 303 302 301 300
331 330 330 332 332 333 331 331 330 329 328 326 325 322 322 322 320 319 318 317 315 314 312 309 306 304 303 303 302 302 301 300 299
325 326 329 331 331 332 332 332 332 329 328 329 328 324 323 321 320 319 318 314 314 310 310 309 306 304 302 301 301 301 300 300 299

GFSFLT1_850_thetae_075.txt.gz
Theta_e
314 312 313 324 338 336 334 332 330 318 315 317 328 331 330 329 327 332 333 333 332 333 332 331 329 330 333 333 334 332 333 333 333
312 314 315 326 337 336 335 333 328 321 317 319 329 330 330 330 329 329 330 331 330 328 325 321 319 321 325 329 330 332 332 332 332
314 316 318 327 336 336 333 331 326 322 317 319 329 330 329 328 328 328 327 325 326 321 317 315 314 317 318 321 322 324 326 328 328
319 324 328 333 335 334 331 331 326 322 314 320 325 327 328 328 328 327 326 322 323 319 315 312 311 311 312 312 312 312 312 313 314
317 328 326 326 331 332 330 328 323 320 314 319 321 324 328 326 327 326 326 320 320 317 313 309 308 307 307 307 307 307 307 308 308
314 315 318 321 322 327 324 324 321 317 316 318 320 325 328 328 328 327 326 321 316 316 312 308 306 306 306 306 305 305 305 305 305
313 313 316 318 317 319 321 321 318 315 317 318 320 325 328 328 328 327 325 321 316 314 311 307 306 305 305 305 305 305 305 304 304
314 314 314 316 316 318 319 318 315 316 318 318 319 326 327 328 328 325 323 319 315 313 311 308 306 305 305 305 305 304 303 303 303
323 320 318 315 315 317 318 317 315 318 321 323 322 327 328 328 327 324 322 319 315 312 311 308 306 305 305 304 304 304 303 303 303
327 323 319 316 315 316 316 316 316 319 324 325 324 324 326 327 326 323 322 319 315 312 311 309 307 305 305 304 303 303 303 303 303
329 326 323 324 322 322 321 323 325 327 326 326 325 325 325 324 324 322 321 319 315 313 311 310 308 305 305 304 303 304 303 303 303
330 327 326 328 326 325 325 326 327 329 329 327 326 324 324 324 322 322 322 320 317 314 312 310 309 306 305 305 304 304 304 304 304
330 327 327 329 329 329 326 326 327 328 329 328 327 326 323 322 321 322 322 321 319 315 313 311 310 307 306 305 305 305 305 304 305
330 328 328 330 331 331 329 327 326 327 328 327 326 325 323 321 320 321 323 322 320 317 313 312 311 307 306 304 304 305 305 304 304
331 330 328 328 328 330 331 330 327 326 327 328 326 325 323 321 320 319 322 322 321 319 316 312 311 309 306 304 303 304 303 303 302
333 333 332 331 331 330 330 331 331 329 327 327 327 324 322 321 320 320 320 321 322 321 319 314 311 309 307 304 303 302 302 302 301
334 333 332 331 332 332 331 331 331 331 329 327 326 323 322 321 321 320 321 321 320 321 320 318 312 309 308 306 303 302 301 301 301
333 334 334 333 333 332 332 331 331 329 330 329 327 322 322 322 322 322 321 321 320 318 318 315 313 310 307 305 304 303 301 300 300
330 331 332 333 333 333 332 331 329 328 328 329 328 326 324 322 322 322 322 320 318 316 313 313 311 310 307 306 304 301 300 300 299
327 325 325 329 332 331 331 331 331 329 329 329 329 327 326 324 322 321 322 320 319 316 311 310 310 309 307 305 302 301 300 299 299

GFSFLT1_850_thetae_078.txt.gz
Theta_e
313 313 329 337 336 334 332 327 314 314 319 325 327 327 327 327 331 333 333 336 332 331 330 328 327 331 333 333 333 333 333 333 328
312 312 321 337 336 334 332 328 317 317 321 326 326 328 330 329 329 330 331 331 330 328 323 317 318 320 324 328 332 332 333 332 333
313 313 321 335 336 335 329 325 320 317 319 324 327 328 327 326 327 325 327 325 323 317 315 313 313 315 317 320 322 323 325 326 327
314 314 320 333 334 333 326 326 321 315 318 323 325 325 326 325 327 325 324 320 318 316 313 311 309 310 311 312 312 312 313 313 314
316 316 322 330 332 331 327 325 321 315 317 320 323 323 324 325 325 324 322 319 316 316 312 308 307 307 307 307 308 308 308 308 308
316 319 326 330 331 331 326 324 321 316 316 319 320 322 323 323 326 326 324 321 316 315 311 308 306 306 306 306 305 305 305 305 305
316 315 320 325 325 327 325 324 321 315 316 318 319 322 325 326 326 326 325 322 317 314 311 309 307 306 305 305 305 305 305 304 304
314 314 314 317 317 319 323 324 320 314 317 318 320 323 326 326 326 326 324 322 318 314 312 310 307 306 305 305 305 304 303 303 303
317 316 315 315 316 317 319 320 318 315 318 319 319 323 326 326 327 326 324 322 319 315 312 310 308 306 305 305 304 304 303 303 303
325 324 322 318 315 315 317 318 316 315 320 323 322 323 326 326 326 326 324 322 320 316 313 311 309 306 305 305 304 304 303 303 303
326 326 324 320 320 317 317 317 318 317 319 322 323 323 324 325 325 325 324 322 321 318 315 312 310 308 306 305 304 304 303 303 303
328 328 326 324 324 324 324 323 324 325 326 326 326 325 324 324 324 324 323 322 321 319 316 313 311 310 307 305 304 304 303 303 303
330 329 328 326 326 327 327 326 325 325 326 327 327 327 326 324 323 323 322 321 322 320 318 315 313 311 308 306 305 304 304 303 303
330 329 328 327 327 328 329 330 328 326 326 327 328 327 326 326 324 322 321 320 321 321 320 317 314 312 310 307 306 305 303 303 302
331 330 329 328 327 328 329 331 331 329 327 327 328 328 327 326 325 323 321 320 321 321 321 319 316 312 311 308 309 307 303 301 300
333 332 331 330 329 329 329 330 331 331 330 327 327 327 327 327 325 323 321 320 320 321 320 319 318 315 312 309 306 310 307 302 300
335 334 333 333 332 331 331 331 331 331 331 330 328 327 327 327 326 324 322 321 319 319 320 319 318 316 314 310 308 305 309 307 301
334 333 332 333 333 333 333 332 332 331 331 331 328 326 326 326 325 325 323 321 319 318 318 318 317 315 313 311 309 306 304 303 301
330 331 332 333 333 333 333 332 332 332 331 330 329 328 328 325 324 325 323 322 319 318 317 315 313 312 311 309 308 306 304 301 300
328 330 330 329 330 330 331 332 330 329 329 329 328 328 328 327 324 323 324 323 321 321 321 319 317 313 313 309 305 304 304 302 300

GFSFLT1_850_thetae_081.txt.gz
Theta_e
315 329 337 336 333 331 325 313 313 315 316 318 320 324 329 331 332 333 334 332 330 329 326 324 328 333 333 334 334 333 332 328 330
312 321 335 335 334 331 328 316 314 316 319 321 323 327 328 329 330 331 331 331 330 325 320 315 316 321 331 333 333 333 333 333 332
312 315 334 334 334 332 326 319 315 317 320 322 325 327 326 326 326 326 327 324 319 316 314 313 312 314 317 320 323 325 328 328 330
313 314 330 333 333 330 326 320 315 318 322 324 326 326 325 324 324 323 321 318 316 315 313 310 308 309 311 312 313 314 314 314 315
314 314 327 332 331 330 325 322 318 317 321 326 325 324 324 324 324 322 321 319 316 315 312 309 307 306 307 307 307 308 308 308 308
316 317 327 331 331 329 325 323 321 314 320 325 323 322 323 323 324 324 324 322 318 315 313 310 307 306 306 306 305 305 305 305 305
317 318 322 329 329 330 327 325 323 317 316 320 321 323 323 325 325 325 325 324 320 315 313 311 309 306 306 305 305 305 305 305 304
315 316 316 320 320 320 322 322 321 317 315 318 320 322 324 325 325 326 326 324 322 318 314 312 310 307 306 305 305 305 304 303 303
315 315 314 316 317 318 319 321 320 316 315 317 319 321 324 325 325 325 325 324 323 321 316 313 311 309 306 305 305 304 303 303 303
320 319 319 318 317 316 317 319 319 317 315 318 319 319 321 324 325 326 325 325 323 322 320 315 312 310 307 305 304 304 303 303 303
323 325 324 322 319 316 315 316 317 316 315 318 321 323 323 323 324 324 324 324 323 322 321 318 315 311 309 306 304 303 304 303 303
328 327 326 325 323 323 322 321 320 321 321 321 323 324 324 323 323 324 324 324 323 322 321 319 317 314 311 308 305 303 303 302 302
330 329 328 327 325 326 325 325 325 324 324 324 325 326 327 326 325 324 324 323 322 321 321 320 319 316 314 311 309 305 303 302 301
331 330 329 329 328 326 327 328 329 329 327 326 326 326 327 327 326 325 325 324 322 320 320 321 320 318 316 313 315 313 306 302 300
332 331 330 330 329 328 328 328 329 330 330 330 328 327 327 327 327 326 326 325 323 321 319 319 320 319 317 315 315 315 314 309 301
334 332 331 331 330 330 329 329 329 329 330 331 330 329 328 327 327 327 327 326 325 322 320 319 318 319 318 316 314 315 314 313 307
334 333 333 333 333 332 331 330 329 329 330 331 330 329 328 327 327 326 326 326 325 323 321 319 318 318 316 316 314 312 313 314 311
334 334 334 334 334 334 333 332 331 331 331 331 330 326 326 326 326 326 325 325 324 322 320 318 316 315 315 315 314 312 310 310 310
333 332 332 333 334 334 334 332 332 331 330 329 329 328 326 326 326 326 325 325 324 323 323 322 320 316 315 314 314 312 315 312 314
334 333 331 328 329 330 329 330 332 329 328 328 327 328 328 328 327 323 325 325 324 323 322 322 321 318 319 314 314 312 312 309 307

GFSFLT1_850_thetae_084.txt.gz
Theta_e
329 336 335 333 330 320 312 312 313 315 318 320 327 329 331 331 333 333 331 329 327 325 322 321 329 332 333 333 333 332 330 331 332
318 336 335 333 330 324 315 314 315 318 321 322 325 326 327 330 330 331 330 329 322 316 314 313 314 324 331 332 332 332 332 332 332
313 332 333 332 330 326 318 315 317 319 321 323 325 325 325 325 325 324 325 321 317 315 312 310 309 312 316 320 323 327 330 331 330
312 326 332 331 330 324 320 316 316 319 321 323 324 324 324 325 323 322 320 318 315 315 312 309 307 307 308 310 312 313 313 313 314
313 319 330 331 330 325 323 320 315 318 321 322 324 323 324 324 323 323 323 322 318 314 313 310 308 307 306 306 306 306 307 307 307
314 318 332 331 330 328 325 322 318 316 319 322 322 322 323 323 324 325 324 323 321 316 314 312 309 307 306 306 305 305 305 305 305
316 317 326 330 329 327 324 323 320 316 316 320 321 321 322 324 325 325 325 324 322 320 316 313 311 308 306 305 305 305 305 304 304
318 318 320 323 326 325 325 323 322 319 315 316 318 320 321 322 324 325 325 325 323 322 320 316 312 310 307 306 305 305 304 303 303
316 317 316 318 320 319 319 321 322 320 315 315 317 319 321 322 323 324 325 325 324 323 321 320 316 312 309 306 305 304 303 303 303
315 315 315 315 316 316 316 318 320 320 316 315 317 318 319 320 323 324 324 324 324 323 322 321 319 315 311 309 305 304 303 303 302
322 322 323 323 320 319 316 316 317 318 317 315 318 321 322 322 323 323 323 323 323 323 322 321 321 319 315 312 308 305 303 303 302
326 325 326 326 323 322 321 319 320 319 320 319 318 320 323 324 324 324 323 323 323 323 322 321 320 320 319 315 312 308 304 303 302
330 329 327 328 327 324 325 324 324 324 324 324 324 324 324 325 325 325 325 325 324 324 322 320 319 319 319 318 316 313 309 303 302
331 331 330 329 329 328 326 327 327 328 328 328 328 327 326 326 326 326 326 326 325 325 323 321 319 318 319 318 318 320 316 313 304
333 331 330 330 330 330 329 328 328 328 329 329 329 330 329 329 328 327 327 327 326 326 325 322 320 318 318 318 318 318 317 316 314
335 333 332 331 330 330 330 330 329 329 329 329 329 329 329 329 328 327 327 326 326 326 325 323 320 318 317 317 317 317 316 317 315
333 333 333 333 333 332 332 331 331 331 330 329 329 329 327 326 326 326 326 326 325 325 324 323 321 320 318 317 316 317 316 316 315
333 333 334 334 334 334 333 333 332 332 331 330 329 329 327 326 325 325 324 325 325 324 323 322 322 321 318 316 316 316 316 315 315
334 335 335 335 334 332 332 332 332 332 330 329 328 328 328 329 327 327 326 326 325 325 324 323 322 322 320 317 314 315 316 315 313
333 332 331 330 329 330 328 329 331 331 331 330 329 327 326 328 327 324 323 324 324 323 322 321 320 320 320 317 317 313 313 315 313

GFSFLT1_850_thetae_087.txt.gz
Theta_e
335 333 331 327 316 312 312 313 315 317 321 326 329 331 331 333 332 330 330 329 323 319 317 320 331 333 332 333 333 332 332 333 332
336 334 332 328 321 314 314 316 318 320 322 324 326 328 330 331 330 329 327 320 316 314 312 311 315 323 330 332 332 332 332 332 332
334 334 332 329 324 317 315 317 318 320 321 323 323 323 324 323 322 322 318 316 315 314 310 308 307 308 312 317 320 324 327 330 330
326 333 331 330 326 321 316 316 318 320 322 323 323 322 323 322 321 320 320 319 316 314 312 309 307 307 307 307 308 310 311 311 311
318 331 330 331 327 324 320 316 317 319 321 322 322 322 323 323 323 323 323 322 319 315 313 311 309 307 306 306 306 306 306 306 306
314 329 331 333 329 325 323 320 316 316 318 321 321 321 322 323 324 324 324 323 322 320 316 313 311 309 307 306 305 305 305 305 305
315 320 330 330 329 327 325 323 321 317 316 318 320 320 321 322 324 324 325 324 323 322 321 318 314 311 308 306 305 305 304 304 304
317 317 324 325 328 328 326 324 323 320 317 315 318 319 320 322 323 324 325 325 324 323 322 321 318 314 310 308 306 305 304 304 303
318 319 318 322 323 323 322 324 323 322 320 315 315 317 319 321 322 324 324 325 325 323 322 321 321 319 314 311 307 305 304 304 303
315 317 317 316 317 318 318 318 320 321 320 316 315 317 318 320 320 323 324 324 324 323 323 322 321 321 320 315 311 307 305 303 303
325 317 317 318 319 318 318 316 316 318 319 317 315 318 320 322 323 323 323 323 323 323 323 322 321 320 320 320 316 312 306 304 303
328 322 323 325 325 320 321 318 318 319 319 320 318 319 321 323 325 325 325 325 324 324 323 322 321 319 319 319 319 318 312 307 303
329 327 326 326 327 324 323 324 323 324 324 324 324 325 325 325 325 325 326 326 326 325 325 324 322 319 318 318 321 320 319 315 311
331 331 330 329 328 328 326 326 326 327 327 328 328 328 328 328 328 327 327 327 327 326 326 325 323 321 318 318 319 320 319 318 317
332 332 331 331 330 329 329 328 328 328 328 328 328 328 329 329 329 329 328 327 327 327 326 326 324 322 319 318 317 318 319 319 318
333 334 332 331 331 330 330 330 330 330 329 329 329 329 329 329 327 326 325 326 326 325 325 325 324 323 321 319 317 317 318 319 319
334 334 334 333 333 332 331 331 331 331 331 330 330 329 328 327 327 325 325 325 325 324 325 324 323 322 320 318 317 317 317 318 319
334 333 333 333 333 333 333 333 333 332 332 331 330 329 328 327 327 326 325 326 326 325 324 325 323 322 322 320 317 316 317 317 317
335 335 334 333 334 333 333 332 331 332 332 331 329 328 329 328 326 325 325 325 324 323 324 323 322 321 321 320 319 317 316 318 318
333 332 332 331 331 330 329 329 329 329 331 331 329 328 327 328 326 324 324 322 322 322 321 320 320 318 320 319 318 317 316 314 315

GFSFLT1_850_thetae_090.txt.gz
Theta_e
331 327 319 312 311 312 314 315 317 322 327 329 330 331 332 334 334 333 330 320 314 314 314 326 333 333 332 332 332 332 333 333 332
332 329 323 314 313 314 316 318 320 322 324 326 329 331 330 333 331 330 328 316 314 311 309 310 318 322 327 332 332 332 332 332 332
334 331 326 319 314 316 317 320 321 323 324 323 324 323 322 329 328 325 319 315 314 312 310 308 307 308 311 316 319 324 324 326 325
335 333 330 325 318 315 318 319 321 322 323 322 322 322 322 328 327 329 328 318 315 314 312 310 308 307 306 306 307 308 309 309 308
337 335 333 328 324 319 316 317 319 320 322 322 321 322 322 328 327 329 323 321 320 317 314 312 310 308 306 306 306 306 306 305 305
330 336 336 333 327 324 321 318 316 318 320 321 320 321 326 329 328 329 324 323 322 321 320 316 313 310 308 306 306 305 305 305 305
322 330 331 334 329 325 324 323 321 316 319 319 321 325 323 324 325 329 324 324 323 322 321 321 318 314 311 308 306 305 304 304 304
315 322 332 332 329 328 327 324 325 322 319 315 320 320 321 325 324 324 324 324 324 323 322 321 321 319 315 311 308 306 304 304 304
320 327 330 331 330 331 330 330 327 323 321 318 316 316 318 320 321 326 323 324 325 323 322 322 321 321 320 316 311 307 305 304 304
321 329 330 330 330 330 326 322 325 324 323 320 315 316 317 319 321 323 323 323 323 324 323 322 321 320 320 320 318 313 308 305 304
318 318 319 319 316 319 320 321 317 319 320 320 317 316 318 321 322 324 324 324 323 323 323 324 322 321 319 319 320 319 314 309 305
327 323 318 319 322 323 320 320 317 317 318 319 320 319 320 322 324 325 325 326 325 325 324 324 324 323 320 319 320 320 320 318 312
328 328 322 324 326 325 322 323 323 323 323 324 324 325 325 325 326 326 326 326 327 326 326 325 325 324 322 321 321 321 320 320 319
329 330 329 327 327 327 327 325 325 326 326 327 328 328 328 328 329 329 329 328 327 327 327 326 326 324 322 320 320 321 321 320 319
332 331 331 331 330 329 329 328 328 327 327 328 328 328 328 328 328 328 326 325 325 326 326 326 325 325 323 321 319 319 321 321 320
333 333 332 331 331 330 330 330 330 329 329 329 329 329 329 329 329 327 326 325 324 325 325 325 325 324 323 321 319 318 318 320 321
334 334 334 334 333 332 331 331 331 330 331 331 331 331 331 330 328 327 325 325 325 325 325 325 324 324 322 321 320 318 318 319 321
335 334 334 334 334 333 333 333 332 332 332 332 331 330 329 329 327 327 327 325 326 325 324 324 324 324 322 321 321 320 317 317 318
335 335 335 334 334 333 333 333 332 332 332 331 332 331 330 328 328 326 324 323 324 324 322 323 322 321 321 320 320 319 318 317 317
333 333 333 334 333 333 333 332 331 330 330 331 330 331 328 327 327 326 323 323 323 322 321 321 320 318 317 315 316 317 317 317 317

GFSFLT1_850_thetae_093.txt.gz
Theta_e
323 313 311 311 312 314 315 317 322 327 328 330 331 330 333 333 332 331 318 313 312 312 316 328 331 331 331 332 333 333 333 332 332
326 318 312 313 315 316 317 320 323 325 326 329 330 329 332 332 331 328 316 314 311 309 308 309 310 314 318 328 330 330 330 330 328
329 323 315 314 316 318 319 320 322 323 323 323 323 322 329 330 330 326 317 314 313 312 310 308 307 307 308 309 313 317 317 315 312
332 327 320 315 316 318 319 320 321 322 321 321 321 321 327 331 331 331 321 318 316 315 313 311 309 308 307 307 306 306 306 306 306
334 330 326 321 317 316 318 319 320 320 320 320 321 322 330 332 331 328 322 321 321 320 318 314 312 310 308 307 306 306 306 306 305
335 333 330 327 323 320 317 316 318 319 320 320 320 326 331 331 331 330 323 322 322 321 321 320 316 313 310 308 306 306 305 305 305
337 332 332 332 326 323 322 320 318 317 324 320 320 330 329 330 330 329 323 323 323 322 321 321 321 319 313 310 307 306 305 305 305
334 334 335 334 329 326 324 323 323 326 325 327 328 328 329 329 329 326 322 322 323 323 322 321 321 321 320 314 311 307 306 305 305
330 335 334 334 336 337 333 334 333 327 323 325 324 325 327 327 328 328 323 322 322 324 322 322 321 320 321 321 317 312 308 306 305
330 333 335 335 335 335 334 333 333 332 331 327 320 319 322 325 324 326 324 323 323 323 325 324 322 321 320 320 320 320 315 310 306
333 334 334 334 334 333 332 331 330 330 330 330 326 320 320 320 323 325 326 325 325 324 323 325 325 324 322 320 319 320 321 318 312
329 331 332 331 331 330 330 330 325 327 326 326 327 324 324 326 326 326 327 327 326 326 325 325 325 326 325 323 322 321 321 320 320
329 329 327 328 329 328 329 329 329 327 328 328 329 326 325 326 328 329 327 327 327 327 327 326 326 325 325 324 324 323 322 321 320
331 331 331 327 328 327 327 328 329 330 329 328 328 329 328 329 329 328 329 329 327 327 327 327 326 326 325 324 323 322 323 322 321
332 333 334 332 329 327 328 329 328 326 329 329 327 327 328 329 328 330 330 329 327 325 326 326 325 325 325 324 323 322 322 322 321
335 334 335 334 332 331 332 330 329 329 329 329 329 330 329 330 330 330 330 329 327 325 325 325 324 324 324 323 323 322 320 321 322
334 334 334 335 334 332 332 331 331 330 330 330 331 331 332 331 331 330 328 327 326 325 325 325 325 324 323 324 322 321 320 320 320
336 335 334 334 334 334 334 333 332 332 331 331 331 332 331 330 329 328 327 327 326 324 325 325 324 324 323 322 321 321 321 319 318
332 331 333 334 334 334 334 333 333 333 333 332 332 331 331 330 328 327 326 326 324 324 324 323 322 323 321 320 319 318 318 319 319
329 328 328 330 334 334 334 334 333 333 332 332 331 330 330 330 327 325 324 325 323 323 322 321 320 319 319 318 316 314 315 316 317

GFSFLT1_850_thetae_096.txt.gz
Theta_e
310 310 311 312 313 315 320 324 326 328 330 330 328 329 331 331 323 314 312 310 310 311 314 320 325 326 328 330 330 331 330 328 327
311 312 313 315 316 318 322 323 324 327 328 328 328 332 331 328 317 315 314 312 311 310 309 308 308 310 312 317 321 318 319 315 311
314 313 314 316 318 319 320 321 321 322 323 323 323 328 329 328 327 318 315 315 314 313 311 310 308 308 307 307 307 308 307 307 306
321 315 315 316 318 319 320 320 320 320 320 320 321 327 326 330 329 321 320 319 318 317 315 313 311 309 308 307 307 306 306 306 306
326 322 317 316 317 318 319 320 320 320 320 321 321 328 331 331 329 323 322 321 321 321 320 317 314 312 310 308 307 307 306 305 305
331 329 324 319 317 316 317 318 319 319 319 319 321 327 331 330 329 327 322 322 321 321 321 321 320 316 312 310 309 307 306 305 305
331 326 325 323 322 320 319 317 316 318 320 320 322 328 329 328 327 325 322 322 322 321 321 320 321 321 318 313 311 308 307 306 305
341 330 326 324 322 322 322 322 321 321 325 325 325 329 329 329 328 325 323 321 321 321 321 321 320 320 321 320 316 312 309 307 305
331 331 327 325 325 324 324 331 330 325 321 322 322 324 327 325 327 326 325 322 322 322 322 322 321 320 319 320 321 320 315 310 306
328 332 332 329 331 330 330 334 333 329 328 325 320 319 320 324 323 323 324 324 324 323 323 324 324 324 323 321 319 320 321 317 312
330 332 334 334 335 334 334 332 328 330 328 329 328 321 319 320 322 323 325 325 325 325 325 324 325 326 326 325 324 321 320 320 320
332 333 334 333 333 331 329 330 329 325 326 326 326 327 323 324 325 325 326 326 326 326 326 326 326 326 326 326 325 324 322 321 320
327 329 331 328 330 327 327 325 323 322 324 325 326 327 325 324 326 328 328 327 327 327 327 326 327 326 326 326 325 325 324 323 322
330 328 329 327 327 326 326 325 325 326 327 327 326 327 327 327 328 328 328 328 328 326 325 325 326 326 325 325 324 324 324 324 322
332 332 332 331 328 326 325 326 326 326 327 327 327 326 327 327 327 328 329 330 329 327 324 324 325 324 324 324 324 323 323 324 323
333 331 334 334 332 330 329 329 328 328 327 328 328 328 329 329 330 330 330 329 329 328 325 325 325 324 324 324 323 323 322 322 322
336 334 334 336 335 333 332 332 330 329 329 329 330 330 330 331 331 330 330 329 328 327 326 324 325 324 323 323 324 323 322 320 321
333 334 333 333 334 334 333 333 332 331 331 331 330 331 331 330 330 330 330 327 326 326 325 324 324 324 323 322 322 321 321 321 320
333 332 331 331 331 331 332 332 332 332 332 332 332 332 331 331 329 328 327 326 325 325 324 323 322 322 322 321 320 318 318 317 317
325 327 328 327 325 325 326 329 330 331 333 332 332 332 331 330 330 328 328 326 325 324 323 322 321 319 319 318 317 317 316 315 313

GFSFLT1_850_thetae_099.txt.gz
Theta_e
310 311 311 313 315 321 324 326 329 332 329 329 330 328 322 316 313 312 311 310 309 309 310 310 312 316 321 322 323 319 316 311 308
311 312 314 315 323 323 325 326 328 327 326 328 330 327 322 316 315 314 314 313 312 311 310 309 309 309 308 309 309 309 307 307 306
313 315 316 317 320 321 322 323 324 325 323 325 325 325 325 322 319 318 317 316 315 314 312 311 309 308 308 307 307 307 306 306 306
314 316 317 318 319 320 320 320 320 319 320 324 325 326 324 324 321 321 320 320 320 318 315 313 312 310 309 308 307 307 306 306 306
315 316 317 318 319 319 319 319 319 320 320 322 326 328 327 325 325 321 321 321 321 321 320 319 316 313 311 309 308 307 306 306 306
320 316 316 317 318 318 319 319 319 319 319 322 327 329 328 327 324 322 321 321 321 320 320 320 320 319 316 312 310 308 307 306 305
325 321 319 317 317 317 317 317 318 318 319 321 326 327 327 327 324 322 321 320 321 320 320 320 320 320 320 319 315 311 309 307 305
326 321 321 320 320 320 320 319 319 320 321 322 325 327 328 327 326 324 324 321 321 321 321 321 321 320 319 320 321 319 313 309 306
328 326 322 321 321 322 322 323 325 322 320 320 321 323 326 325 325 323 323 323 323 323 322 323 324 324 323 321 319 320 320 315 310
324 324 326 325 324 323 325 327 327 328 324 324 320 319 320 322 321 321 323 324 324 325 325 324 325 325 325 325 323 321 320 321 319
323 326 330 330 329 331 331 329 329 329 325 326 324 322 318 318 320 322 324 325 325 325 326 326 325 326 326 326 325 324 322 320 320
330 330 333 332 332 332 332 332 328 325 324 324 323 323 323 322 324 325 325 326 326 326 326 326 326 326 326 326 325 325 324 322 321
331 331 333 334 333 334 332 329 327 326 324 322 322 323 324 324 324 325 326 327 327 327 326 325 325 325 325 325 326 325 325 323 322
326 329 330 330 329 327 327 325 325 324 324 324 325 325 325 326 326 327 328 328 328 328 326 324 324 325 324 324 324 325 325 324 323
330 329 328 328 328 327 326 326 326 325 326 328 326 326 326 326 326 327 328 329 330 329 328 325 324 324 324 324 324 324 325 324 324
334 331 329 330 330 327 327 327 327 328 327 327 327 327 327 327 329 330 329 330 329 328 328 326 325 324 324 323 322 324 323 322 322
335 333 332 332 333 333 332 330 330 330 329 329 329 329 329 329 330 331 330 330 329 328 328 325 324 324 324 323 322 322 321 321 321
335 335 333 334 335 334 333 333 332 332 331 330 330 330 330 330 331 331 331 330 328 327 326 325 323 323 323 322 322 320 319 319 320
334 334 332 332 333 332 331 330 332 332 331 330 330 330 331 331 329 330 329 328 327 325 325 324 323 322 321 321 320 319 318 317 317
330 328 332 330 329 328 327 326 326 326 327 326 326 327 329 331 329 329 328 326 326 325 324 323 322 321 320 318 316 315 315 315 315

GFSFLT1_850_thetae_102.txt.gz
Theta_e
312 311 312 314 318 321 328 331 332 331 327 324 322 317 314 313 313 312 311 311 310 310 309 310 311 314 314 312 310 308 307 307 307
311 312 316 320 322 324 327 330 327 326 325 323 319 317 316 315 315 315 315 314 313 311 310 309 309 308 308 308 307 307 307 307 307
313 315 319 321 322 323 324 325 324 324 324 320 321 324 321 320 319 319 319 318 316 314 312 311 310 309 308 307 307 307 307 307 307
315 317 319 319 320 320 322 322 321 320 323 323 322 324 324 321 321 320 320 320 320 319 317 315 313 311 310 309 308 307 306 307 307
317 318 318 319 319 319 319 319 319 320 321 324 325 325 324 324 322 321 320 320 320 320 320 320 318 315 313 311 309 307 306 306 306
316 318 318 319 319 319 319 319 319 320 321 325 327 326 324 323 322 320 320 320 320 320 319 319 320 320 319 316 312 309 307 306 306
316 317 318 318 319 319 319 319 319 319 320 324 326 325 324 324 324 322 321 320 320 320 320 320 320 319 320 320 319 314 310 307 306
318 317 317 317 317 317 317 317 318 319 319 321 324 325 324 323 323 322 322 322 322 322 322 322 323 323 321 320 320 319 315 309 307
322 320 319 319 319 319 319 319 320 320 321 319 322 322 322 322 321 321 322 323 323 324 323 324 324 325 325 323 321 320 320 316 312
323 325 323 322 321 322 322 324 327 325 322 321 320 321 320 320 320 321 322 324 324 325 325 325 325 325 325 325 324 322 320 320 320
323 322 325 325 325 324 327 329 328 327 326 327 324 322 319 318 319 321 323 324 325 325 325 325 325 325 325 325 325 324 322 321 320
321 323 327 330 330 330 329 329 328 328 327 323 323 324 323 321 322 324 325 326 326 326 326 325 326 326 325 325 325 325 324 323 321
326 327 328 331 330 331 331 330 329 327 326 323 323 322 323 324 323 324 325 327 327 328 327 325 324 324 324 324 325 325 325 324 323
326 328 329 331 332 332 331 331 328 326 325 323 323 323 325 325 326 326 326 327 328 328 328 327 324 324 324 323 324 324 325 324 323
326 329 331 331 332 331 329 326 326 326 325 326 325 325 325 325 326 326 328 329 329 329 329 328 326 324 324 323 320 322 324 324 324
332 330 328 328 328 328 327 326 326 326 326 327 327 326 326 326 327 328 329 329 329 328 328 328 327 325 323 323 323 322 322 323 323
334 334 333 330 329 330 330 329 328 327 328 329 329 329 328 328 328 329 330 330 329 329 328 327 327 325 323 323 323 322 320 319 319
334 336 334 333 331 328 329 330 330 331 331 331 330 330 330 330 330 330 330 330 329 329 328 326 325 322 321 322 322 321 320 320 319
335 334 334 332 332 328 330 328 329 330 329 331 331 330 329 329 329 329 328 329 328 327 325 325 324 323 322 321 320 319 318 317 317
333 333 334 333 331 331 331 329 329 328 327 326 327 326 325 325 325 327 328 327 326 326 324 324 321 322 321 319 318 316 316 314 313

GFSFLT1_850_thetae_105.txt.gz
Theta_e
314 311 312 314 317 327 330 327 325 324 320 317 315 314 313 313 313 312 312 312 311 310 310 310 309 309 308 308 307 307 308 308 309
311 312 315 318 323 327 327 322 323 322 319 317 316 316 316 316 316 316 316 315 314 313 312 311 309 309 308 308 307 307 308 309 311
313 317 320 321 324 326 323 322 321 322 320 321 320 320 319 320 320 320 319 319 318 317 315 313 312 310 309 308 307 307 308 308 309
316 319 320 322 323 323 322 321 321 321 321 322 322 322 320 320 320 320 320 319 319 320 319 318 316 313 311 310 308 307 307 308 308
318 319 319 320 320 321 321 320 320 322 321 322 323 322 322 320 319 319 319 319 319 319 319 319 319 318 316 313 310 308 306 306 307
318 318 319 319 319 320 319 319 320 321 322 322 324 322 321 321 320 319 320 320 320 320 320 320 319 319 319 318 314 310 307 306 306
318 318 319 319 319 319 319 319 319 321 323 325 325 325 324 323 321 322 321 321 321 321 321 322 322 321 320 319 319 315 310 307 306
318 318 318 319 319 319 319 319 319 319 322 324 324 324 325 323 323 322 322 322 323 322 323 323 324 324 323 321 320 319 315 311 308
317 317 317 317 317 317 317 317 318 320 321 322 323 324 324 323 322 322 322 323 324 324 324 324 324 324 324 324 323 320 320 317 313
319 318 318 319 319 319 319 319 321 321 321 321 321 321 322 321 321 321 322 324 324 325 325 325 324 325 325 325 324 323 321 320 319
322 322 322 323 322 322 322 325 327 328 325 323 323 321 319 319 319 321 322 324 325 325 325 325 325 325 325 325 325 324 323 322 321
324 325 324 326 326 325 325 328 327 327 326 325 326 325 324 321 320 322 324 325 326 327 326 326 326 324 324 324 324 325 325 323 322
322 321 325 329 329 329 330 330 329 328 326 326 324 324 324 324 323 323 324 326 327 327 327 326 324 324 323 324 325 325 324 324 323
324 325 327 329 331 331 330 330 330 329 328 328 326 323 323 324 325 325 325 326 327 328 328 328 326 324 323 323 323 323 324 324 324
324 326 328 329 330 331 331 331 330 328 327 326 325 324 324 326 326 326 327 328 328 329 328 328 327 326 324 323 323 323 322 322 323
329 325 326 328 330 331 331 329 328 327 326 326 326 326 326 326 326 327 327 328 329 329 328 327 326 326 325 324 323 322 322 322 322
334 333 333 330 329 329 329 328 327 327 327 328 328 328 328 328 328 328 328 329 329 329 328 328 327 324 323 321 321 322 322 320 319
334 333 334 333 332 330 330 331 331 329 329 329 330 330 330 330 329 329 328 329 329 328 328 328 327 324 323 322 322 321 320 320 320
335 335 334 335 332 331 330 331 331 328 328 328 328 328 328 329 327 327 327 327 328 328 327 327 326 323 321 321 321 320 319 317 317
336 336 334 333 333 332 330 329 331 328 327 327 329 327 328 327 326 325 324 325 326 326 326 326 324 322 321 321 320 319 317 316 315

GFSFLT1_850_thetae_108.txt.gz
Theta_e
315 310 311 314 323 332 327 322 318 317 315 314 314 314 314 314 315 314 314 313 312 311 311 310 310 309 309 308 309 309 310 312 312
311 311 314 320 325 323 321 320 318 317 316 316 316 317 317 318 318 318 317 316 315 314 313 312 311 310 309 308 309 308 310 311 316
312 314 318 323 323 320 319 320 319 319 319 319 319 319 319 319 319 319 319 319 319 318 317 315 314 312 310 309 308 308 309 311 314
315 318 321 322 321 320 320 320 320 321 322 321 321 320 320 320 319 319 319 319 319 319 319 318 317 315 313 311 309 308 308 308 309
318 320 321 322 321 321 320 321 321 321 322 322 322 322 320 319 319 319 319 319 319 319 319 319 319 319 318 315 312 309 308 307 309
319 320 320 322 322 322 321 321 322 322 322 323 323 321 321 320 321 320 320 321 320 321 321 321 321 320 320 319 316 312 308 307 307
318 319 320 320 321 321 320 320 321 322 323 323 323 323 322 322 322 321 321 322 322 322 322 323 323 323 322 321 319 316 311 309 308
318 319 319 320 320 319 319 319 320 321 322 323 323 323 323 322 322 322 322 322 323 323 323 323 323 323 323 323 321 320 318 314 311
318 319 319 319 319 319 319 319 319 320 321 322 323 322 323 322 321 321 322 323 324 324 324 324 324 324 324 324 323 322 320 319 317
318 318 319 319 318 317 317 317 319 321 322 322 321 322 321 321 321 321 322 323 324 324 325 324 324 324 324 324 324 323 322 321 320
317 317 317 317 318 319 319 319 321 324 323 322 321 322 321 320 319 320 321 323 324 325 325 326 326 324 323 324 324 324 324 323 321
321 320 320 322 322 322 323 324 327 328 327 325 325 325 325 325 320 320 322 324 326 327 327 326 325 325 324 324 324 324 323 324 323
323 324 325 326 326 326 325 327 328 328 327 326 325 323 324 324 324 322 323 324 326 327 327 327 325 324 322 323 324 325 324 324 323
324 321 322 327 329 329 330 330 329 329 328 326 326 325 323 323 323 325 325 324 325 327 328 328 327 325 323 322 322 323 324 323 323
324 325 326 327 328 330 329 329 330 329 327 326 325 324 324 324 325 326 326 326 327 328 328 327 327 325 325 324 323 322 322 322 322
326 325 326 327 327 328 329 331 329 328 327 327 326 325 326 326 325 325 326 326 327 328 328 328 327 326 324 324 320 321 321 322 320
332 331 329 328 328 329 330 330 329 328 328 328 328 327 328 328 328 327 327 327 327 328 329 328 327 327 324 323 321 322 321 321 321
333 334 333 333 333 331 330 330 329 328 329 329 329 329 329 329 328 326 328 328 327 326 327 327 327 328 325 323 321 321 320 320 319
334 334 334 333 333 333 331 331 331 328 327 329 327 327 327 328 328 327 327 326 326 327 323 325 327 326 324 322 321 321 320 318 318
334 335 335 334 333 332 331 329 327 327 328 327 323 325 327 328 328 327 326 325 324 322 323 323 324 326 324 321 321 320 318 316 316

GFSFLT1_850_thetae_111.txt.gz
Theta_e
314 310 314 329 328 325 319 316 315 314 314 314 314 314 314 314 315 315 314 313 312 312 312 311 311 310 310 310 311 312 314 318 315
311 312 318 327 324 320 318 317 316 316 316 316 316 317 318 318 318 318 318 317 316 315 315 314 313 311 310 310 310 311 316 316 315
311 314 323 324 321 319 318 317 317 318 318 319 319 319 319 319 319 319 319 319 318 318 318 317 316 314 312 310 310 310 312 313 320
313 318 323 323 321 319 319 319 320 320 320 320 320 320 319 319 319 319 319 319 319 319 319 319 318 317 316 313 311 309 309 310 319
316 321 322 321 320 320 320 320 322 322 322 322 321 320 319 319 320 320 320 320 320 320 320 320 320 319 318 316 314 311 309 309 310
318 321 321 321 321 321 321 321 321 322 323 322 321 320 320 320 320 321 321 321 321 321 322 322 322 321 321 319 318 315 311 308 308
319 321 321 322 322 321 320 321 321 323 323 323 322 321 321 321 321 321 321 322 322 322 322 322 322 323 322 321 320 318 315 312 309
320 321 322 321 321 321 320 320 321 321 322 323 323 323 322 321 321 322 322 322 323 323 323 323 323 323 323 323 322 321 319 317 314
320 321 321 320 320 320 319 319 319 320 321 322 322 322 322 322 321 322 323 323 324 324 324 324 324 323 323 323 323 322 321 320 319
319 319 320 319 319 319 319 319 319 319 321 322 321 321 321 321 321 321 322 323 324 324 325 325 325 323 322 323 323 323 323 322 321
319 319 319 319 319 318 318 318 319 321 322 322 321 321 320 320 319 320 321 323 324 325 326 327 326 324 322 323 323 323 323 323 322
318 318 318 317 317 317 319 319 321 325 327 326 324 325 325 324 322 319 321 323 324 326 327 327 326 324 323 323 323 324 324 323 323
317 317 318 319 321 321 322 323 326 327 327 326 326 324 323 324 324 323 322 323 325 326 327 327 326 324 322 322 323 323 323 323 322
322 323 325 325 326 326 326 326 328 328 328 327 326 326 325 323 322 323 324 324 324 325 327 328 328 326 324 323 323 322 322 322 323
325 325 326 326 329 329 329 329 330 330 329 327 326 326 325 324 324 324 325 326 326 326 327 327 326 325 325 325 324 320 322 321 321
326 325 324 327 328 329 331 331 331 330 328 327 326 326 326 326 327 326 326 326 326 326 327 328 327 327 326 326 324 321 320 320 320
325 326 327 328 328 329 330 331 331 330 328 327 327 328 328 328 327 327 327 327 327 327 327 328 328 327 327 326 323 322 320 320 319
331 330 328 327 328 329 330 330 330 329 328 328 329 329 327 327 328 328 327 326 328 328 327 325 326 326 327 326 325 321 320 321 319
333 331 329 329 329 329 330 330 329 328 326 326 327 328 327 327 327 327 327 327 327 326 326 324 324 325 326 325 324 321 320 319 318
332 332 332 332 332 326 326 330 326 326 326 327 327 326 325 325 326 327 326 325 325 324 323 320 322 320 321 324 323 321 321 319 317

GFSFLT1_850_thetae_117.txt.gz
Theta_e
331 335 335 334 330 319 321 321 317 315 315 315 314 315 324 329 328 321 318 315 315 315 314 314 313 313 312 317 316 319 322 323 322
329 334 330 330 326 317 315 314 314 315 315 316 316 319 327 330 330 326 318 318 317 317 316 315 314 315 314 314 312 315 316 325 325
332 334 331 325 318 315 314 314 315 317 318 319 319 320 327 330 329 320 318 318 318 318 318 317 316 315 314 312 313 315 313 318 320
332 332 328 322 317 315 315 316 317 319 319 319 319 320 326 330 329 325 319 319 319 319 319 319 318 317 316 314 312 311 312 315 318
333 329 329 320 317 316 316 318 319 319 319 319 319 320 327 329 328 320 320 320 320 320 320 320 320 319 319 317 314 312 311 312 311
334 332 326 320 318 319 320 320 320 320 320 319 320 326 329 330 328 320 320 321 321 321 321 321 321 321 320 319 317 314 312 311 310
336 332 325 321 320 321 322 322 322 321 320 320 324 329 329 330 329 321 321 321 322 322 322 322 321 321 321 321 320 318 316 314 312
334 333 327 324 323 322 323 322 325 332 331 327 330 329 329 329 328 321 321 322 322 323 323 322 320 320 321 321 321 321 320 318 317
335 331 327 325 325 324 323 326 331 330 330 330 330 330 329 329 330 322 322 322 323 323 324 323 321 320 321 322 322 322 321 321 320
334 334 335 331 332 330 330 330 330 329 329 329 328 328 330 329 329 328 322 322 323 324 324 325 323 322 321 322 323 322 322 322 322
333 333 335 333 333 331 329 328 328 328 328 328 327 325 325 327 328 329 324 322 323 324 325 327 326 324 321 321 322 323 323 323 323
333 333 334 333 332 329 327 327 326 328 329 329 328 326 326 324 324 326 327 324 322 324 325 329 328 324 321 321 321 320 322 322 322
333 333 332 331 329 327 326 325 326 330 332 333 331 329 328 328 328 325 324 326 326 324 325 326 327 326 322 324 323 322 320 320 321
331 330 329 328 326 326 325 325 329 332 331 329 329 327 325 324 327 327 326 325 325 327 329 326 327 327 326 325 324 324 323 322 320
329 328 327 326 325 326 325 330 331 333 332 328 326 325 325 327 326 327 327 326 325 325 327 328 327 328 327 326 325 324 323 322 321
325 326 328 326 326 329 327 327 327 329 328 328 328 329 330 329 327 326 326 327 325 326 327 329 329 328 327 327 327 326 325 323 321
322 328 329 329 331 332 330 330 330 330 328 329 331 331 331 330 328 327 326 327 327 327 326 327 327 327 328 328 327 327 326 323 321
323 332 331 330 329 331 329 329 329 330 332 330 331 330 331 331 330 327 327 328 326 326 326 327 327 327 326 325 326 327 326 323 322
329 330 326 326 325 328 328 328 329 330 333 330 328 328 326 329 329 328 327 326 326 327 327 327 327 326 325 324 324 322 324 322 322
323 325 327 327 328 328 329 329 330 330 330 327 328 327 327 327 327 327 325 327 325 323 324 324 324 322 321 320 320 320 321 322 321

GFSFLT1_850_thetae_120.txt.gz
Theta_e
330 332 330 328 331 332 325 319 317 316 315 314 317 323 326 323 320 317 316 317 316 316 316 315 315 316 316 315 320 326 325 322 325
329 336 335 325 320 324 318 316 315 315 315 316 323 329 330 327 320 318 318 318 317 317 317 317 316 315 314 318 317 325 325 323 325
335 336 333 326 317 316 315 315 315 316 317 319 324 328 329 324 319 318 318 318 318 318 318 318 317 316 315 315 314 319 321 322 323
334 332 328 322 316 315 315 316 317 318 319 319 323 328 328 325 319 318 318 319 319 319 319 319 318 317 316 315 313 318 315 318 317
333 332 324 317 315 315 316 317 319 319 319 319 322 326 327 326 321 319 319 320 320 320 320 320 320 319 318 316 315 314 312 312 317
333 330 323 317 315 316 317 319 319 319 319 320 326 328 330 327 319 319 320 321 321 321 320 320 320 320 319 318 317 315 314 314 314
332 330 325 318 317 318 319 320 320 320 319 323 327 328 329 327 321 320 320 321 322 322 321 319 319 320 320 320 320 319 317 315 315
332 330 330 319 319 320 321 322 323 323 322 329 329 329 328 326 321 320 321 321 322 323 322 320 319 320 320 321 321 320 320 319 318
331 330 323 320 321 322 322 324 329 331 331 330 329 329 329 329 325 321 321 321 322 323 323 322 321 320 321 321 321 321 321 321 320
331 329 324 323 322 322 323 327 330 330 329 329 329 330 329 329 326 326 321 322 322 323 324 325 324 321 321 321 322 322 322 322 322
332 330 325 325 330 326 328 330 328 329 329 328 327 324 329 328 328 326 325 321 322 323 324 326 326 324 320 319 321 322 322 323 323
333 329 325 330 332 331 329 328 328 327 328 328 327 325 324 324 323 325 325 325 323 323 324 326 328 325 321 321 320 319 319 320 321
334 331 331 332 332 331 327 326 326 327 326 330 330 329 328 328 327 326 325 325 325 325 325 325 326 327 324 325 324 323 322 321 320
330 331 333 333 330 328 326 323 323 328 329 331 331 329 327 326 327 328 327 326 325 325 327 328 326 326 327 326 325 325 325 323 323
333 333 333 331 327 325 322 321 325 328 329 328 327 327 328 328 327 326 327 326 326 325 325 326 326 326 327 327 326 325 324 324 323
332 331 329 327 323 321 319 321 325 329 331 330 328 329 329 327 327 327 326 327 326 326 326 326 325 328 326 327 327 327 326 326 323
328 328 327 323 322 320 322 324 326 328 329 329 331 331 331 331 329 327 326 326 327 327 327 327 327 327 327 327 326 325 326 327 326
327 326 323 322 323 323 325 328 329 329 332 331 330 330 330 331 330 329 328 327 327 326 326 326 327 327 327 327 325 325 325 326 325
326 325 325 321 325 326 328 330 330 331 334 333 329 328 327 326 329 328 327 326 325 326 325 325 327 327 326 324 322 322 321 322 321
324 326 322 323 327 327 329 328 328 329 331 331 328 327 327 326 328 327 327 324 325 325 323 322 322 323 321 321 321 320 320 321 321

GFSFLT1_850_thetae_123.txt.gz
Theta_e
334 327 324 335 335 334 323 318 320 324 326 326 329 327 326 323 316 317 317 318 318 317 317 322 322 322 321 328 327 325 326 325 322
332 324 325 333 331 323 317 316 315 314 316 322 324 322 321 318 318 317 317 318 318 318 318 317 316 319 322 323 322 322 321 324 326
332 331 324 327 326 318 316 316 315 315 320 326 327 324 322 319 318 318 318 318 318 318 318 317 317 318 318 316 323 320 318 321 318
336 335 327 319 320 316 315 315 316 317 322 326 327 325 320 318 318 318 318 318 319 318 318 318 318 317 315 315 319 314 319 317 316
336 334 329 320 315 315 315 317 318 319 320 324 325 324 322 319 318 319 319 319 319 319 318 318 319 318 318 317 316 315 314 316 316
336 330 326 317 315 315 316 318 319 319 320 323 327 326 325 320 319 319 320 320 321 319 318 317 319 319 319 319 318 317 316 315 314
333 329 322 316 314 316 318 319 319 319 322 325 328 327 324 321 319 320 320 321 322 321 319 317 319 319 320 320 319 319 318 317 316
333 328 320 316 315 317 319 319 319 320 325 326 328 327 325 322 320 320 320 321 322 323 321 319 319 320 320 320 320 320 320 320 319
331 326 319 316 317 319 321 321 324 324 329 328 329 329 327 326 322 320 321 321 322 323 323 322 321 320 321 321 321 321 321 321 321
330 327 319 318 319 321 323 326 328 329 328 330 329 329 328 327 325 325 321 322 322 323 324 324 324 321 320 320 321 322 322 322 322
330 326 320 319 321 322 323 325 327 329 329 329 329 330 329 329 326 326 326 323 322 323 324 325 326 324 320 320 320 320 320 321 322
330 325 323 321 321 322 326 327 327 327 328 327 326 323 325 326 324 325 325 324 324 322 323 324 327 326 324 321 322 320 320 320 320
330 325 323 326 328 328 326 328 326 326 327 328 327 326 326 327 327 327 326 324 324 323 324 325 325 326 326 325 326 324 325 325 323
331 328 325 330 330 331 326 325 323 324 326 328 331 329 329 328 327 328 327 326 325 324 324 324 326 326 326 327 326 326 326 325 324
331 331 329 329 331 331 325 323 323 324 328 330 331 329 327 325 326 327 327 326 325 325 324 324 325 326 326 326 327 326 326 325 325
332 332 330 330 332 328 324 322 322 327 330 330 329 328 327 328 327 327 327 326 326 326 326 325 325 326 328 327 327 327 327 327 327
329 329 330 332 331 327 321 320 323 330 330 330 329 330 330 330 330 329 327 326 327 327 327 327 327 327 327 327 327 326 325 325 326
332 331 332 332 328 321 320 321 324 326 329 329 329 330 330 330 329 329 328 327 326 326 326 326 326 326 327 327 326 325 324 323 323
332 332 332 329 323 320 321 324 325 327 328 331 329 329 328 326 327 328 328 326 325 325 325 323 324 326 326 325 321 321 320 320 320
332 331 328 323 322 323 324 325 327 328 329 331 331 328 327 325 326 327 326 326 322 324 325 323 321 322 323 321 321 321 320 320 320